EW4266 Weather Reports


Display with metric or nautical units.
time (UTC)temp
F
wind
direction
speed
MPH
gust
MPH
rain 1hr
in
rain 24hr
in
rain mn
in
humidity
%
barometer
mb
20260508215420 52 329 2.0 6.0 0.00 0.00 0.00 43 1009.6
20260508215325 52 28 2.0 6.0 0.00 0.00 0.00 42 1009.6
20260508215225 52 338 3.0 6.0 0.00 0.00 0.00 42 1009.6
20260508215030 52 341 5.0 6.0 0.00 0.00 0.00 41 1009.6
20260508214932 52 355 4.0 6.0 0.00 0.00 0.00 43 1009.6
20260508214835 52 348 3.0 5.0 0.00 0.00 0.00 44 1009.6
20260508214801 52 350 2.0 5.0 0.00 0.00 0.00 44 1009.6
20260508214724 52 350 2.0 5.0 0.00 0.00 0.00 43 1009.6
20260508214523 52 355 1.0 5.0 0.00 0.00 0.00 42 1009.6
20260508214447 52 341 2.0 5.0 0.00 0.00 0.00 43 1009.6
20260508214332 52 310 1.0 5.0 0.00 0.00 0.00 42 1009.5
20260508214252 52 331 1.0 5.0 0.00 0.00 0.00 44 1009.5
20260508214102 52 321 2.0 5.0 0.00 0.00 0.00 41 1009.6
20260508214017 52 325 2.0 5.0 0.00 0.00 0.00 41 1009.5
20260508213826 52 336 2.0 5.0 0.00 0.00 0.00 43 1009.6
20260508213742 52 345 2.0 5.0 0.00 0.00 0.00 43 1009.6
20260508213617 52 311 3.0 5.0 0.00 0.00 0.00 40 1009.6
20260508213539 52 311 3.0 5.0 0.00 0.00 0.00 41 1009.6
20260508213341 52 330 3.0 5.0 0.00 0.00 0.00 41 1009.6
20260508213304 52 53 3.0 5.0 0.00 0.00 0.00 41 1009.6
20260508213209 52 17 3.0 5.0 0.00 0.00 0.00 41 1009.5
20260508213131 52 16 3.0 5.0 0.00 0.00 0.00 40 1009.6
20260508212935 52 321 2.0 5.0 0.00 0.00 0.00 42 1009.6
20260508212837 52 296 2.0 5.0 0.00 0.00 0.00 40 1009.5
20260508212722 52 225 3.0 5.0 0.00 0.00 0.00 42 1009.6
20260508212649 52 240 3.0 5.0 0.00 0.00 0.00 39 1009.6
20260508212521 52 294 2.0 5.0 0.00 0.00 0.00 40 1009.5
20260508212436 52 230 2.0 5.0 0.00 0.00 0.00 40 1009.6
20260508212307 52 279 1.0 4.0 0.00 0.00 0.00 40 1009.5
20260508212229 52 284 2.0 4.0 0.00 0.00 0.00 39 1009.5
20260508212031 52 271 2.0 4.0 0.00 0.00 0.00 40 1009.5
20260508211954 52 276 1.0 4.0 0.00 0.00 0.00 43 1009.5
20260508211859 52 287 2.0 4.0 0.00 0.00 0.00 41 1009.5
20260508211822 52 298 2.0 4.0 0.00 0.00 0.00 40 1009.4
20260508211652 52 298 2.0 4.0 0.00 0.00 0.00 42 1009.4
20260508211606 52 322 2.0 4.0 0.00 0.00 0.00 40 1009.4
20260508211449 52 338 3.0 4.0 0.00 0.00 0.00 39 1009.4
20260508211353 52 355 2.0 4.0 0.00 0.00 0.00 42 1009.4
20260508211255 52 13 2.0 4.0 0.00 0.00 0.00 42 1009.4
20260508211138 52 17 1.0 5.0 0.00 0.00 0.00 43 1009.4
20260508211102 52 29 1.0 5.0 0.00 0.00 0.00 43 1009.4
20260508211017 52 45 1.0 6.0 0.00 0.00 0.00 43 1009.4
20260508210828 51 15 1.0 6.0 0.00 0.00 0.00 43 1009.4
20260508210721 51 24 1.0 6.0 0.00 0.00 0.00 41 1009.4
20260508210655 51 24 1.0 6.0 0.00 0.00 0.00 41 1009.4
20260508210600 51 5 2.0 6.0 0.00 0.00 0.00 40 1009.4
20260508210520 51 5 3.0 6.0 0.00 0.00 0.00 41 1009.4
20260508210336 51 13 4.0 6.0 0.00 0.00 0.00 41 1009.4
20260508210229 51 32 4.0 6.0 0.00 0.00 0.00 42 1009.4
20260508210153 51 14 3.0 7.0 0.00 0.00 0.00 42 1009.4
20260508210057 51 36 2.0 8.0 0.00 0.00 0.00 41 1009.4
20260508205958 51 350 2.0 8.0 0.00 0.00 0.00 41 1009.4
20260508205921 51 350 2.0 10.0 0.00 0.00 0.00 41 1009.4
20260508205723 51 308 1.0 10.0 0.00 0.00 0.00 39 1009.5
20260508205617 51 308 2.0 10.0 0.00 0.00 0.00 39 1009.4
20260508205555 51 308 3.0 10.0 0.00 0.00 0.00 39 1009.4
20260508205500 51 311 4.0 10.0 0.00 0.00 0.00 41 1009.5
20260508205341 51 346 5.0 10.0 0.00 0.00 0.00 41 1009.4
20260508205224 51 344 6.0 10.0 0.00 0.00 0.00 42 1009.4
20260508205148 51 325 7.0 10.0 0.00 0.00 0.00 41 1009.4
20260508205024 51 346 5.0 10.0 0.00 0.00 0.00 41 1009.4
20260508204929 51 25 3.0 10.0 0.00 0.00 0.00 42 1009.4
20260508204850 51 351 3.0 12.0 0.00 0.00 0.00 43 1009.4
20260508204751 51 278 3.0 12.0 0.00 0.00 0.00 41 1009.4
20260508204717 51 299 4.0 12.0 0.00 0.00 0.00 41 1009.4
20260508204621 52 301 6.0 12.0 0.00 0.00 0.00 40 1009.4
20260508204542 52 321 6.0 12.0 0.00 0.00 0.00 39 1009.4
20260508204324 52 337 3.0 12.0 0.00 0.00 0.00 39 1009.3
20260508204228 52 273 3.0 12.0 0.00 0.00 0.00 40 1009.4
20260508204112 52 313 6.0 12.0 0.00 0.00 0.00 39 1009.4
20260508204047 52 334 6.0 12.0 0.00 0.00 0.00 40 1009.3
20260508203929 52 341 4.0 10.0 0.00 0.00 0.00 41 1009.4
20260508203852 52 32 4.0 6.0 0.00 0.00 0.00 41 1009.4
20260508203815 52 345 3.0 5.0 0.00 0.00 0.00 41 1009.3
20260508203641 52 340 3.0 4.0 0.00 0.00 0.00 38 1009.4
20260508203605 52 344 3.0 4.0 0.00 0.00 0.00 38 1009.4
20260508203519 52 335 3.0 4.0 0.00 0.00 0.00 39 1009.3
20260508203330 52 324 3.0 4.0 0.00 0.00 0.00 42 1009.4
20260508203245 52 350 2.0 5.0 0.00 0.00 0.00 41 1009.4
20260508203115 52 269 1.0 5.0 0.00 0.00 0.00 42 1009.3
20260508203036 52 289 2.0 5.0 0.00 0.00 0.00 40 1009.3
20260508202907 52 22 1.0 5.0 0.00 0.00 0.00 41 1009.3
20260508202821 52 265 0.0 5.0 0.00 0.00 0.00 41 1009.3
20260508202633 52 265 2.0 5.0 0.00 0.00 0.00 39 1009.3
20260508202532 52 198 3.0 5.0 0.00 0.00 0.00 39 1009.3
20260508202453 52 195 3.0 5.0 0.00 0.00 0.00 39 1009.3
20260508202409 52 210 3.0 8.0 0.00 0.00 0.00 39 1009.3
20260508202331 52 269 3.0 8.0 0.00 0.00 0.00 41 1009.3
20260508202135 52 223 2.0 10.0 0.00 0.00 0.00 39 1009.3
20260508202037 52 284 2.0 11.0 0.00 0.00 0.00 40 1009.3
20260508201940 52 274 2.0 11.0 0.00 0.00 0.00 41 1009.3
20260508201844 52 340 2.0 11.0 0.00 0.00 0.00 41 1009.3
20260508201724 52 355 3.0 11.0 0.00 0.00 0.00 39 1009.3
20260508201628 52 333 4.0 11.0 0.00 0.00 0.00 38 1009.3
20260508201550 52 331 4.0 11.0 0.00 0.00 0.00 38 1009.3
20260508201339 52 317 8.0 11.0 0.00 0.00 0.00 40 1009.3
20260508201231 52 328 6.0 11.0 0.00 0.00 0.00 41 1009.2
20260508201154 52 355 4.0 10.0 0.00 0.00 0.00 41 1009.2
20260508201059 52 63 1.0 6.0 0.00 0.00 0.00 40 1009.3
20260508200939 52 94 2.0 6.0 0.00 0.00 0.00 40 1009.3
20260508200846 51 339 2.0 8.0 0.00 0.00 0.00 41 1009.3
20260508200811 51 326 2.0 10.0 0.00 0.00 0.00 40 1009.3
20260508200642 51 221 3.0 10.0 0.00 0.00 0.00 40 1009.3
20260508200535 51 265 2.0 10.0 0.00 0.00 0.00 40 1009.3
20260508200407 51 244 3.0 10.0 0.00 0.00 0.00 41 1009.3
20260508200328 51 207 4.0 10.0 0.00 0.00 0.00 39 1009.3
20260508200159 51 226 6.0 10.0 0.00 0.00 0.00 40 1009.4
20260508200032 51 196 6.0 10.0 0.00 0.00 0.00 39 1009.4
20260508195956 52 188 5.0 11.0 0.00 0.00 0.00 40 1009.4
20260508195841 52 222 3.0 10.0 0.00 0.00 0.00 40 1009.3
20260508195737 52 197 4.0 10.0 0.00 0.00 0.00 39 1009.4
20260508195617 52 217 4.0 10.0 0.00 0.00 0.00 39 1009.4
20260508195529 52 274 4.0 9.0 0.00 0.00 0.00 40 1009.4
20260508195433 52 282 4.0 9.0 0.00 0.00 0.00 40 1009.4
20260508195355 52 290 4.0 9.0 0.00 0.00 0.00 41 1009.4
20260508195317 52 251 4.0 9.0 0.00 0.00 0.00 41 1009.4
20260508195142 52 306 2.0 10.0 0.00 0.00 0.00 41 1009.4
20260508195042 52 74 3.0 10.0 0.00 0.00 0.00 40 1009.4
20260508194925 52 239 4.0 12.0 0.00 0.00 0.00 40 1009.4
20260508194830 52 248 4.0 12.0 0.00 0.00 0.00 40 1009.4
20260508194732 52 331 4.0 12.0 0.00 0.00 0.00 41 1009.5
20260508194655 51 348 4.0 12.0 0.00 0.00 0.00 39 1009.5
20260508194617 52 299 5.0 12.0 0.00 0.00 0.00 40 1009.4
20260508194406 52 296 5.0 12.0 0.00 0.00 0.00 40 1009.4
20260508194322 52 327 6.0 12.0 0.00 0.00 0.00 43 1009.4
20260508194133 52 360 7.0 12.0 0.00 0.00 0.00 41 1009.4
20260508194048 52 15 5.0 12.0 0.00 0.00 0.00 42 1009.4
20260508193839 52 322 3.0 8.0 0.00 0.00 0.00 42 1009.4
20260508193754 52 302 1.0 5.0 0.00 0.00 0.00 43 1009.3
20260508193522 52 213 3.0 5.0 0.00 0.00 0.00 40 1009.2
20260508193425 52 213 2.0 5.0 0.00 0.00 0.00 39 1009.3
20260508193329 52 211 2.0 6.0 0.00 0.00 0.00 40 1009.2
20260508193252 52 258 2.0 6.0 0.00 0.00 0.00 40 1009.2
20260508193214 52 269 2.0 6.0 0.00 0.00 0.00 42 1009.2
20260508193036 52 292 1.0 6.0 0.00 0.00 0.00 45 1009.3
20260508192939 52 257 3.0 6.0 0.00 0.00 0.00 44 1009.4
20260508192825 52 325 4.0 6.0 0.00 0.00 0.00 44 1009.3
20260508192746 52 323 4.0 6.0 0.00 0.00 0.00 44 1009.3
20260508192621 52 333 5.0 6.0 0.00 0.00 0.00 44 1009.4
20260508192537 51 355 5.0 9.0 0.00 0.00 0.00 43 1009.4
20260508192406 51 355 4.0 9.0 0.00 0.00 0.00 43 1009.3
20260508192330 51 351 4.0 9.0 0.00 0.00 0.00 43 1009.4
20260508192132 51 298 4.0 10.0 0.00 0.00 0.00 43 1009.4
20260508192056 51 325 3.0 10.0 0.00 0.00 0.00 43 1009.4
20260508191940 51 5 1.0 11.0 0.00 0.00 0.00 44 1009.3
20260508191902 51 5 3.0 11.0 0.00 0.00 0.00 42 1009.3
20260508191725 51 360 6.0 11.0 0.00 0.00 0.00 42 1009.4
20260508191648 51 347 6.0 11.0 0.00 0.00 0.00 42 1009.4
20260508191614 51 326 6.0 11.0 0.00 0.00 0.00 42 1009.4
20260508191438 52 308 7.0 11.0 0.00 0.00 0.00 42 1009.4
20260508191341 52 329 5.0 11.0 0.00 0.00 0.00 42 1009.4
20260508191245 52 300 7.0 11.0 0.00 0.00 0.00 42 1009.4
20260508191126 52 342 5.0 11.0 0.00 0.00 0.00 45 1009.4
20260508191041 52 342 3.0 10.0 0.00 0.00 0.00 45 1009.4
20260508190945 51 344 2.0 11.0 0.00 0.00 0.00 44 1009.4
20260508190842 51 339 1.0 11.0 0.00 0.00 0.00 43 1009.4
20260508190727 51 314 2.0 11.0 0.00 0.00 0.00 43 1009.4
20260508190651 51 295 3.0 11.0 0.00 0.00 0.00 44 1009.4
20260508190611 51 319 7.0 11.0 0.00 0.00 0.00 45 1009.4
20260508190421 51 332 7.0 11.0 0.00 0.00 0.00 45 1009.4
20260508190337 51 345 6.0 11.0 0.00 0.00 0.00 44 1009.3
20260508190207 51 355 5.0 12.0 0.00 0.00 0.00 44 1009.3
20260508190119 51 348 3.0 12.0 0.00 0.00 0.00 44 1009.4
20260508185941 51 30 2.0 12.0 0.00 0.00 0.00 46 1009.4
20260508185905 51 342 4.0 12.0 0.00 0.00 0.00 45 1009.4
20260508185726 51 328 5.0 12.0 0.00 0.00 0.00 45 1009.4
20260508185648 51 288 5.0 12.0 0.00 0.00 0.00 44 1009.4
20260508185434 51 22 5.0 12.0 0.00 0.00 0.00 45 1009.4
20260508185358 51 27 3.0 8.0 0.00 0.00 0.00 44 1009.4
20260508185305 51 44 2.0 6.0 0.00 0.00 0.00 45 1009.5
20260508185144 51 166 2.0 6.0 0.00 0.00 0.00 43 1009.5
20260508185048 51 177 2.0 8.0 0.00 0.00 0.00 43 1009.5
20260508184930 51 298 3.0 8.0 0.00 0.00 0.00 43 1009.5
20260508184824 51 331 2.0 8.0 0.00 0.00 0.00 47 1009.5
20260508184744 51 19 2.0 8.0 0.00 0.00 0.00 44 1009.5
20260508184555 51 226 2.0 8.0 0.00 0.00 0.00 44 1009.5
20260508184432 51 68 3.0 8.0 0.00 0.00 0.00 44 1009.5
20260508184355 51 355 4.0 8.0 0.00 0.00 0.00 45 1009.5
20260508184240 51 298 5.0 8.0 0.00 0.00 0.00 45 1009.5
20260508184134 51 342 3.0 8.0 0.00 0.00 0.00 47 1009.5
20260508184037 51 312 2.0 8.0 0.00 0.00 0.00 47 1009.5
20260508183933 51 336 1.0 8.0 0.00 0.00 0.00 46 1009.5
20260508183827 51 332 2.0 8.0 0.00 0.00 0.00 47 1009.5
20260508183755 51 345 4.0 8.0 0.00 0.00 0.00 45 1009.5
20260508183716 51 344 4.0 8.0 0.00 0.00 0.00 47 1009.5
20260508183609 51 360 3.0 8.0 0.00 0.00 0.00 48 1009.5
20260508183530 50 29 1.0 4.0 0.00 0.00 0.00 49 1009.6
20260508183402 50 360 2.0 5.0 0.00 0.00 0.00 48 1009.6
20260508183255 50 9 2.0 6.0 0.00 0.00 0.00 46 1009.6
20260508183106 50 200 2.0 6.0 0.00 0.00 0.00 44 1009.6
20260508183027 50 221 2.0 6.0 0.00 0.00 0.00 44 1009.7
20260508182858 50 130 1.0 9.0 0.00 0.00 0.00 45 1009.7
20260508182729 50 41 2.0 9.0 0.00 0.00 0.00 45 1009.7
20260508182653 50 34 2.0 9.0 0.00 0.00 0.00 45 1009.7
20260508182540 50 40 4.0 11.0 0.00 0.00 0.00 45 1009.6
20260508182503 50 26 4.0 11.0 0.00 0.00 0.00 47 1009.6
20260508182429 50 27 3.0 12.0 0.00 0.00 0.00 47 1009.7
20260508182248 50 15 5.0 14.0 0.00 0.00 0.00 45 1009.7
20260508182148 50 5 6.0 14.0 0.00 0.00 0.00 45 1009.7
20260508181930 50 311 4.0 14.0 0.00 0.00 0.00 46 1009.8
20260508181852 50 325 4.0 14.0 0.00 0.00 0.00 45 1009.8
20260508181734 50 315 8.0 14.0 0.00 0.00 0.00 46 1009.8
20260508181659 50 329 7.0 14.0 0.00 0.00 0.00 46 1009.8
20260508181614 50 327 7.0 14.0 0.00 0.00 0.00 46 1009.8
20260508181428 50 325 7.0 14.0 0.00 0.00 0.00 46 1009.8
20260508181351 50 5 5.0 13.0 0.00 0.00 0.00 46 1009.8
20260508181233 50 330 7.0 13.0 0.00 0.00 0.00 47 1009.8
20260508181156 50 355 8.0 13.0 0.00 0.00 0.00 46 1009.8
20260508181118 50 5 8.0 13.0 0.00 0.00 0.00 47 1009.8
20260508180959 50 20 5.0 10.0 0.00 0.00 0.00 48 1009.8
20260508180841 50 348 4.0 8.0 0.00 0.00 0.00 48 1009.8
20260508180735 50 14 2.0 8.0 0.00 0.00 0.00 47 1009.8
20260508180659 50 5 2.0 8.0 0.00 0.00 0.00 47 1009.8
20260508180620 50 255 2.0 9.0 0.00 0.00 0.00 48 1009.8
20260508180443 50 282 3.0 9.0 0.00 0.00 0.00 48 1009.8
20260508180410 50 228 3.0 9.0 0.00 0.00 0.00 49 1009.9
20260508180230 50 318 4.0 9.0 0.00 0.00 0.00 48 1009.8
20260508180152 50 313 4.0 9.0 0.00 0.00 0.00 48 1009.8
20260508180055 50 332 4.0 9.0 0.00 0.00 0.00 47 1009.8
20260508175957 50 355 4.0 9.0 0.00 0.00 0.00 46 1009.8
20260508175920 50 345 4.0 9.0 0.00 0.00 0.00 47 1009.8
20260508175723 50 5 4.0 11.0 0.00 0.00 0.00 46 1009.8
20260508175626 50 290 4.0 11.0 0.00 0.00 0.00 47 1009.8
20260508175541 50 310 3.0 11.0 0.00 0.00 0.00 47 1009.8
20260508175502 50 302 4.0 11.0 0.00 0.00 0.00 46 1009.8
20260508175336 50 350 4.0 11.0 0.00 0.00 0.00 46 1009.8
20260508175229 50 315 2.0 11.0 0.00 0.00 0.00 46 1009.8
20260508175039 50 322 5.0 11.0 0.00 0.00 0.00 46 1009.8
20260508174952 50 331 5.0 11.0 0.00 0.00 0.00 49 1009.8
20260508174822 50 305 2.0 7.0 0.00 0.00 0.00 48 1009.8
20260508174743 50 200 3.0 7.0 0.00 0.00 0.00 47 1009.8
20260508174607 50 282 4.0 7.0 0.00 0.00 0.00 47 1009.7
20260508174528 50 212 4.0 8.0 0.00 0.00 0.00 47 1009.8
20260508174339 50 338 2.0 7.0 0.00 0.00 0.00 47 1009.8
20260508174234 50 242 1.0 7.0 0.00 0.00 0.00 49 1009.8
20260508174133 50 24 0.0 5.0 0.00 0.00 0.00 50 1009.9
20260508174054 49 34 0.0 5.0 0.00 0.00 0.00 50 1009.9
20260508174017 49 71 0.0 5.0 0.00 0.00 0.00 47 1009.8
20260508173900 49 87 1.0 5.0 0.00 0.00 0.00 49 1009.9
20260508173822 49 87 1.0 5.0 0.00 0.00 0.00 49 1009.9
20260508173626 49 5 2.0 5.0 0.00 0.00 0.00 48 1009.9
20260508173528 49 316 2.0 5.0 0.00 0.00 0.00 47 1010.0
20260508173432 49 302 3.0 5.0 0.00 0.00 0.00 47 1010.0
20260508173355 49 325 2.0 5.0 0.00 0.00 0.00 48 1010.0
20260508173317 49 299 1.0 5.0 0.00 0.00 0.00 48 1010.0
20260508173153 49 355 1.0 4.0 0.00 0.00 0.00 47 1010.0
20260508173048 49 346 1.0 4.0 0.00 0.00 0.00 48 1010.0
20260508172919 49 306 3.0 5.0 0.00 0.00 0.00 48 1010.0
20260508172841 49 349 2.0 5.0 0.00 0.00 0.00 47 1010.0
20260508172644 49 322 1.0 5.0 0.00 0.00 0.00 47 1010.0
20260508172606 49 294 2.0 5.0 0.00 0.00 0.00 49 1010.0
20260508172511 49 282 1.0 5.0 0.00 0.00 0.00 47 1010.0
20260508172433 49 263 2.0 5.0 0.00 0.00 0.00 47 1010.0
20260508172306 49 237 4.0 5.0 0.00 0.00 0.00 49 1010.0
20260508172157 49 258 3.0 5.0 0.00 0.00 0.00 48 1010.0
20260508172121 49 182 2.0 6.0 0.00 0.00 0.00 48 1010.0
20260508171936 49 280 1.0 8.0 0.00 0.00 0.00 47 1010.0
20260508171831 49 287 1.0 8.0 0.00 0.00 0.00 47 1010.0
20260508171752 49 350 1.0 8.0 0.00 0.00 0.00 47 1010.0
20260508171655 49 329 1.0 8.0 0.00 0.00 0.00 46 1010.0
20260508171625 49 329 1.0 8.0 0.00 0.00 0.00 45 1010.0
20260508171455 49 328 1.0 11.0 0.00 0.00 0.00 45 1010.0
20260508171328 49 328 3.0 11.0 0.00 0.00 0.00 47 1010.0
20260508171138 49 320 4.0 11.0 0.00 0.00 0.00 47 1010.0
20260508171035 49 309 4.0 11.0 0.00 0.00 0.00 48 1010.0
20260508170921 48 313 4.0 11.0 0.00 0.00 0.00 47 1010.0
20260508170844 48 300 5.0 11.0 0.00 0.00 0.00 47 1010.0
20260508170807 48 332 6.0 11.0 0.00 0.00 0.00 47 1010.0
20260508170650 48 341 5.0 11.0 0.00 0.00 0.00 48 1010.1
20260508170532 48 329 3.0 10.0 0.00 0.00 0.00 48 1010.0
20260508170435 48 350 1.0 10.0 0.00 0.00 0.00 48 1010.0
20260508170358 48 335 1.0 10.0 0.00 0.00 0.00 48 1010.0
20260508170321 48 335 1.0 10.0 0.00 0.00 0.00 48 1010.0
20260508170123 48 351 3.0 10.0 0.00 0.00 0.00 48 1010.0
20260508170044 48 355 4.0 10.0 0.00 0.00 0.00 47 1010.0
20260508165933 48 331 5.0 10.0 0.00 0.00 0.00 46 1010.0
20260508165854 48 295 6.0 10.0 0.00 0.00 0.00 48 1010.0
20260508165756 48 302 6.0 10.0 0.00 0.00 0.00 48 1010.0
20260508165700 48 342 6.0 9.0 0.00 0.00 0.00 48 1010.0
20260508165622 48 347 5.0 9.0 0.00 0.00 0.00 48 1010.0
20260508165430 48 317 4.0 8.0 0.00 0.00 0.00 48 1010.0
20260508165333 48 336 2.0 6.0 0.00 0.00 0.00 48 1010.0
20260508165245 48 24 2.0 6.0 0.00 0.00 0.00 48 1010.0
20260508165126 48 24 3.0 6.0 0.00 0.00 0.00 47 1010.0
20260508165030 48 10 3.0 6.0 0.00 0.00 0.00 48 1010.0
20260508164957 48 340 3.0 6.0 0.00 0.00 0.00 48 1010.0
20260508164919 48 355 3.0 6.0 0.00 0.00 0.00 47 1010.0
20260508164750 48 330 2.0 10.0 0.00 0.00 0.00 48 1010.0
20260508164644 48 26 2.0 10.0 0.00 0.00 0.00 47 1010.0
20260508164515 48 51 1.0 10.0 0.00 0.00 0.00 46 1010.0
20260508164437 48 13 1.0 10.0 0.00 0.00 0.00 46 1010.0
20260508164239 49 300 4.0 10.0 0.00 0.00 0.00 46 1010.0
20260508164202 49 311 5.0 10.0 0.00 0.00 0.00 46 1010.0
20260508164105 49 345 5.0 10.0 0.00 0.00 0.00 45 1010.0
20260508164027 49 342 6.0 10.0 0.00 0.00 0.00 45 1010.0
20260508163832 49 315 5.0 9.0 0.00 0.00 0.00 45 1010.0
20260508163738 49 347 4.0 9.0 0.00 0.00 0.00 46 1009.9
20260508163641 49 355 3.0 8.0 0.00 0.00 0.00 46 1009.9
20260508163544 49 301 3.0 8.0 0.00 0.00 0.00 47 1009.9
20260508163420 49 302 2.0 9.0 0.00 0.00 0.00 46 1010.0
20260508163335 49 340 2.0 9.0 0.00 0.00 0.00 46 1009.9
20260508163236 49 316 2.0 9.0 0.00 0.00 0.00 47 1009.9
20260508163201 49 322 3.0 9.0 0.00 0.00 0.00 47 1009.9
20260508163105 49 271 3.0 9.0 0.00 0.00 0.00 47 1009.9
20260508163031 49 288 3.0 9.0 0.00 0.00 0.00 48 1009.9
20260508162834 49 338 4.0 9.0 0.00 0.00 0.00 47 1009.9
20260508162738 49 326 5.0 9.0 0.00 0.00 0.00 48 1009.9
20260508162649 49 12 5.0 9.0 0.00 0.00 0.00 48 1009.9
20260508162613 49 347 5.0 10.0 0.00 0.00 0.00 48 1009.9
20260508162442 49 355 3.0 10.0 0.00 0.00 0.00 47 1009.9
20260508162335 49 336 3.0 10.0 0.00 0.00 0.00 46 1009.9
20260508162206 49 27 4.0 10.0 0.00 0.00 0.00 45 1009.9
20260508162128 49 19 5.0 10.0 0.00 0.00 0.00 46 1009.9
20260508161931 49 339 5.0 10.0 0.00 0.00 0.00 45 1009.9
20260508161838 49 330 6.0 10.0 0.00 0.00 0.00 45 1009.9
20260508161741 49 313 5.0 10.0 0.00 0.00 0.00 47 1010.0
20260508161644 49 319 4.0 11.0 0.00 0.00 0.00 48 1010.0
20260508161538 49 348 4.0 11.0 0.00 0.00 0.00 47 1009.9
20260508161502 49 347 4.0 11.0 0.00 0.00 0.00 47 1009.9
20260508161406 49 333 3.0 11.0 0.00 0.00 0.00 46 1009.9
20260508161329 49 327 3.0 11.0 0.00 0.00 0.00 46 1009.9
20260508161129 49 333 3.0 11.0 0.00 0.00 0.00 46 1009.9
20260508161036 49 298 5.0 11.0 0.00 0.00 0.00 47 1010.0
20260508160939 49 325 6.0 11.0 0.00 0.00 0.00 47 1010.0
20260508160842 49 309 6.0 11.0 0.00 0.00 0.00 49 1010.0
20260508160758 49 333 5.0 9.0 0.00 0.00 0.00 49 1010.0
20260508160629 49 325 3.0 8.0 0.00 0.00 0.00 48 1010.0
20260508160530 49 321 3.0 8.0 0.00 0.00 0.00 48 1010.0
20260508160335 48 316 2.0 8.0 0.00 0.00 0.00 49 1010.0
20260508160235 48 229 2.0 8.0 0.00 0.00 0.00 48 1010.0
20260508160140 48 228 2.0 8.0 0.00 0.00 0.00 49 1009.9
20260508160040 48 247 2.0 8.0 0.00 0.00 0.00 49 1009.9
20260508155915 48 308 3.0 8.0 0.00 0.00 0.00 49 1009.9
20260508155829 48 309 4.0 8.0 0.00 0.00 0.00 49 1010.0
20260508155614 48 310 4.0 8.0 0.00 0.00 0.00 47 1010.0
20260508155545 48 291 3.0 8.0 0.00 0.00 0.00 47 1010.0
20260508155425 48 325 4.0 8.0 0.00 0.00 0.00 48 1010.0
20260508155319 48 325 3.0 8.0 0.00 0.00 0.00 48 1010.0
20260508155129 48 275 3.0 8.0 0.00 0.00 0.00 49 1010.0
20260508155045 48 316 4.0 8.0 0.00 0.00 0.00 49 1010.0
20260508154917 48 244 3.0 8.0 0.00 0.00 0.00 49 1009.9
20260508154839 48 191 2.0 10.0 0.00 0.00 0.00 50 1009.9
20260508154713 48 198 2.0 10.0 0.00 0.00 0.00 48 1009.8
20260508154629 48 180 1.0 10.0 0.00 0.00 0.00 48 1010.0
20260508154438 48 318 2.0 10.0 0.00 0.00 0.00 49 1010.0
20260508154354 48 318 3.0 10.0 0.00 0.00 0.00 49 1010.0
20260508154226 48 257 4.0 10.0 0.00 0.00 0.00 48 1009.9
20260508154125 48 284 5.0 10.0 0.00 0.00 0.00 48 1009.9
20260508153928 48 318 7.0 10.0 0.00 0.00 0.00 48 1009.9
20260508153852 48 337 5.0 14.0 0.00 0.00 0.00 48 1009.9
20260508153733 48 348 4.0 14.0 0.00 0.00 0.00 47 1009.9
20260508153633 48 355 3.0 14.0 0.00 0.00 0.00 47 1009.9
20260508153601 48 342 2.0 14.0 0.00 0.00 0.00 48 1009.9
20260508153506 48 345 2.0 14.0 0.00 0.00 0.00 47 1009.8
20260508153427 49 333 4.0 14.0 0.00 0.00 0.00 46 1009.9
20260508153258 49 275 7.0 14.0 0.00 0.00 0.00 46 1009.9
20260508153132 49 289 6.0 14.0 0.00 0.00 0.00 47 1009.9
20260508153025 49 355 3.0 8.0 0.00 0.00 0.00 48 1009.8
20260508152948 49 223 4.0 10.0 0.00 0.00 0.00 47 1009.8
20260508152732 49 217 4.0 10.0 0.00 0.00 0.00 45 1009.8
20260508152633 49 5 4.0 10.0 0.00 0.00 0.00 45 1009.8
20260508152540 49 317 4.0 10.0 0.00 0.00 0.00 46 1009.8
20260508152442 49 294 5.0 10.0 0.00 0.00 0.00 47 1009.8
20260508152357 49 297 5.0 10.0 0.00 0.00 0.00 45 1009.8
20260508152226 49 14 6.0 10.0 0.00 0.00 0.00 46 1009.8
20260508152126 49 5 6.0 10.0 0.00 0.00 0.00 47 1009.8
20260508152008 49 360 3.0 10.0 0.00 0.00 0.00 49 1009.8
20260508151823 49 326 3.0 12.0 0.00 0.00 0.00 49 1009.8
20260508151725 49 333 6.0 12.0 0.00 0.00 0.00 48 1009.8
20260508151658 49 355 7.0 12.0 0.00 0.00 0.00 47 1009.8
20260508151618 49 344 7.0 12.0 0.00 0.00 0.00 47 1009.8
20260508151428 49 311 6.0 12.0 0.00 0.00 0.00 48 1009.8
20260508151323 49 330 7.0 12.0 0.00 0.00 0.00 47 1009.8
20260508151248 49 350 7.0 12.0 0.00 0.00 0.00 48 1009.8
20260508151205 49 344 5.0 12.0 0.00 0.00 0.00 48 1009.8
20260508151127 49 16 5.0 12.0 0.00 0.00 0.00 48 1009.7
20260508150930 49 326 5.0 10.0 0.00 0.00 0.00 48 1009.8
20260508150833 50 355 6.0 9.0 0.00 0.00 0.00 48 1009.8
20260508150731 50 323 8.0 9.0 0.00 0.00 0.00 47 1009.8
20260508150655 50 302 7.0 9.0 0.00 0.00 0.00 49 1009.8
20260508150539 50 351 4.0 9.0 0.00 0.00 0.00 48 1009.7
20260508150444 49 294 2.0 7.0 0.00 0.00 0.00 48 1009.7
20260508150337 49 307 1.0 7.0 0.00 0.00 0.00 48 1009.7
20260508150301 49 360 2.0 7.0 0.00 0.00 0.00 48 1009.7
20260508150204 49 341 2.0 7.0 0.00 0.00 0.00 48 1009.7
20260508150125 49 343 2.0 7.0 0.00 0.00 0.00 48 1009.7
20260508145928 49 275 4.0 7.0 0.00 0.00 0.00 50 1009.8
20260508145835 49 315 3.0 10.0 0.00 0.00 0.00 49 1009.8
20260508145739 49 341 3.0 10.0 0.00 0.00 0.00 49 1009.8
20260508145702 48 19 3.0 10.0 0.00 0.00 0.00 49 1009.8
20260508145523 48 38 3.0 10.0 0.00 0.00 0.00 48 1009.8
20260508145446 48 350 4.0 10.0 0.00 0.00 0.00 48 1009.8
20260508145408 48 349 4.0 10.0 0.00 0.00 0.00 49 1009.8
20260508145223 48 360 5.0 10.0 0.00 0.00 0.00 49 1009.9
20260508145144 48 24 5.0 10.0 0.00 0.00 0.00 49 1009.8
20260508145037 48 327 4.0 10.0 0.00 0.00 0.00 48 1009.9
20260508144945 48 321 1.0 7.0 0.00 0.00 0.00 48 1009.9
20260508144830 48 251 3.0 7.0 0.00 0.00 0.00 48 1009.9
20260508144751 48 260 5.0 7.0 0.00 0.00 0.00 49 1009.9
20260508144600 48 315 1.0 7.0 0.00 0.00 0.00 49 1010.0
20260508144433 47 139 2.0 11.0 0.00 0.00 0.00 49 1010.0
20260508144355 47 142 3.0 11.0 0.00 0.00 0.00 49 1010.0
20260508144258 47 202 3.0 11.0 0.00 0.00 0.00 49 1010.0
20260508144220 47 173 3.0 11.0 0.00 0.00 0.00 49 1010.0
20260508144023 47 141 5.0 11.0 0.00 0.00 0.00 48 1010.0
20260508143930 48 163 5.0 11.0 0.00 0.00 0.00 48 1010.1
20260508143835 48 205 4.0 11.0 0.00 0.00 0.00 48 1010.1
20260508143758 48 257 5.0 11.0 0.00 0.00 0.00 48 1010.1
20260508143606 48 298 4.0 11.0 0.00 0.00 0.00 49 1010.0
20260508143522 48 248 3.0 11.0 0.00 0.00 0.00 48 1010.1
20260508143331 47 209 2.0 11.0 0.00 0.00 0.00 48 1010.0
20260508143247 47 345 3.0 11.0 0.00 0.00 0.00 48 1010.0
20260508143037 47 28 5.0 11.0 0.00 0.00 0.00 49 1010.1
20260508142951 47 342 1.0 6.0 0.00 0.00 0.00 49 1010.1
20260508142759 47 211 1.0 5.0 0.00 0.00 0.00 48 1010.1
20260508142644 47 239 1.0 7.0 0.00 0.00 0.00 48 1010.1
20260508142521 47 243 1.0 8.0 0.00 0.00 0.00 48 1010.2
20260508142436 47 243 0.0 8.0 0.00 0.00 0.00 48 1010.2
20260508142357 47 243 0.0 8.0 0.00 0.00 0.00 48 1010.2
20260508142300 47 243 1.0 8.0 0.00 0.00 0.00 48 1010.2
20260508142125 47 240 3.0 8.0 0.00 0.00 0.00 47 1010.2
20260508142041 47 273 3.0 8.0 0.00 0.00 0.00 47 1010.2
20260508141912 47 253 3.0 8.0 0.00 0.00 0.00 47 1010.2
20260508141834 47 240 4.0 8.0 0.00 0.00 0.00 47 1010.2
20260508141710 47 248 4.0 8.0 0.00 0.00 0.00 46 1010.1
20260508141623 47 290 4.0 8.0 0.00 0.00 0.00 46 1010.1
20260508141435 46 237 2.0 6.0 0.00 0.00 0.00 46 1010.2
20260508141349 46 300 2.0 6.0 0.00 0.00 0.00 47 1010.2
20260508141208 46 329 2.0 10.0 0.00 0.00 0.00 47 1010.2
20260508141018 46 317 2.0 10.0 0.00 0.00 0.00 47 1010.2
20260508140934 45 265 1.0 10.0 0.00 0.00 0.00 47 1010.2
20260508140804 45 321 1.0 10.0 0.00 0.00 0.00 47 1010.2
20260508140724 45 321 1.0 10.0 0.00 0.00 0.00 47 1010.2
20260508140528 45 265 5.0 10.0 0.00 0.00 0.00 47 1010.3
20260508140452 45 286 6.0 10.0 0.00 0.00 0.00 47 1010.3
20260508140400 45 289 4.0 10.0 0.00 0.00 0.00 46 1010.3
20260508140241 45 221 2.0 8.0 0.00 0.00 0.00 47 1010.3
20260508140122 45 247 2.0 8.0 0.00 0.00 0.00 47 1010.2
20260508140045 45 213 3.0 8.0 0.00 0.00 0.00 47 1010.2
20260508140008 45 195 2.0 8.0 0.00 0.00 0.00 47 1010.3
20260508135912 45 267 2.0 8.0 0.00 0.00 0.00 46 1010.1
20260508135835 45 169 2.0 8.0 0.00 0.00 0.00 46 1010.1
20260508135705 45 319 1.0 8.0 0.00 0.00 0.00 46 1010.1
20260508135621 45 21 2.0 8.0 0.00 0.00 0.00 46 1010.2
20260508135451 45 223 4.0 8.0 0.00 0.00 0.00 46 1010.2
20260508135352 45 205 3.0 7.0 0.00 0.00 0.00 46 1010.2
20260508135205 45 237 3.0 7.0 0.00 0.00 0.00 45 1010.2
20260508135119 45 188 3.0 7.0 0.00 0.00 0.00 45 1010.2
20260508134931 45 240 2.0 7.0 0.00 0.00 0.00 45 1010.2
20260508134824 45 237 3.0 7.0 0.00 0.00 0.00 45 1010.2
20260508134747 45 248 4.0 8.0 0.00 0.00 0.00 45 1010.2
20260508134651 45 234 2.0 8.0 0.00 0.00 0.00 44 1010.2
20260508134552 45 214 1.0 8.0 0.00 0.00 0.00 44 1010.2
20260508134516 45 309 2.0 8.0 0.00 0.00 0.00 44 1010.3
20260508134420 45 255 2.0 10.0 0.00 0.00 0.00 44 1010.4
20260508134341 45 283 2.0 10.0 0.00 0.00 0.00 44 1010.4
20260508134211 45 338 3.0 10.0 0.00 0.00 0.00 44 1010.4
20260508134130 45 327 4.0 10.0 0.00 0.00 0.00 44 1010.4
20260508134001 45 260 3.0 10.0 0.00 0.00 0.00 42 1010.4
20260508133815 45 251 5.0 10.0 0.00 0.00 0.00 42 1010.4
20260508133727 45 324 5.0 10.0 0.00 0.00 0.00 42 1010.4
20260508133640 45 336 5.0 10.0 0.00 0.00 0.00 42 1010.3
20260508133544 45 249 3.0 6.0 0.00 0.00 0.00 42 1010.3
20260508133427 45 190 1.0 7.0 0.00 0.00 0.00 40 1010.3
20260508133350 45 355 0.0 8.0 0.00 0.00 0.00 41 1010.3
20260508133309 45 340 1.0 8.0 0.00 0.00 0.00 42 1010.3
20260508133118 45 309 2.0 8.0 0.00 0.00 0.00 39 1010.3
20260508132959 45 281 2.0 8.0 0.00 0.00 0.00 39 1010.3
20260508132841 45 268 2.0 8.0 0.00 0.00 0.00 41 1010.3
20260508132804 45 274 2.0 8.0 0.00 0.00 0.00 41 1010.3
20260508132718 45 225 3.0 8.0 0.00 0.00 0.00 41 1010.3
20260508132547 45 322 4.0 9.0 0.00 0.00 0.00 41 1010.3
20260508132449 45 315 5.0 9.0 0.00 0.00 0.00 41 1010.3
20260508132323 45 286 2.0 9.0 0.00 0.00 0.00 39 1010.2
20260508132229 45 331 3.0 9.0 0.00 0.00 0.00 39 1010.3
20260508132134 45 295 3.0 9.0 0.00 0.00 0.00 40 1010.2
20260508131945 45 319 3.0 9.0 0.00 0.00 0.00 39 1010.2
20260508131838 45 200 5.0 9.0 0.00 0.00 0.00 39 1010.2
20260508131743 45 240 4.0 9.0 0.00 0.00 0.00 38 1010.2
20260508131646 45 259 3.0 6.0 0.00 0.00 0.00 38 1010.2
20260508131529 45 327 3.0 9.0 0.00 0.00 0.00 39 1010.2
20260508131431 45 313 3.0 9.0 0.00 0.00 0.00 38 1010.2
20260508131354 45 322 3.0 9.0 0.00 0.00 0.00 38 1010.2
20260508131316 45 304 3.0 9.0 0.00 0.00 0.00 38 1010.2
20260508131124 45 307 3.0 9.0 0.00 0.00 0.00 37 1010.2
20260508131037 45 290 4.0 9.0 0.00 0.00 0.00 37 1010.2
20260508130909 45 317 4.0 10.0 0.00 0.00 0.00 37 1010.2
20260508130831 45 326 5.0 10.0 0.00 0.00 0.00 37 1010.2
20260508130633 45 302 3.0 10.0 0.00 0.00 0.00 34 1010.2
20260508130557 45 315 2.0 10.0 0.00 0.00 0.00 34 1010.2
20260508130500 45 282 1.0 10.0 0.00 0.00 0.00 30 1010.1
20260508130344 45 244 3.0 10.0 0.00 0.00 0.00 32 1010.1
20260508130227 45 259 4.0 10.0 0.00 0.00 0.00 32 1010.2
20260508130148 45 329 3.0 10.0 0.00 0.00 0.00 32 1010.2
20260508130019 45 325 1.0 6.0 0.00 0.00 0.00 31 1010.1
20260508125933 45 284 1.0 6.0 0.00 0.00 0.00 31 1010.1
20260508125718 45 284 1.0 6.0 0.00 0.00 0.00 32 1010.1
20260508125639 45 282 1.0 6.0 0.00 0.00 0.00 32 1010.1
20260508125445 45 161 4.0 6.0 0.00 0.00 0.00 29 1010.1
20260508125407 45 178 4.0 6.0 0.00 0.00 0.00 29 1010.1
20260508125311 45 164 4.0 6.0 0.00 0.00 0.00 30 1010.1
20260508125211 45 210 3.0 5.0 0.00 0.00 0.00 29 1010.1
20260508125022 45 59 1.0 5.0 0.00 0.00 0.00 20 1010.1
20260508124932 45 92 1.0 5.0 0.00 0.00 0.00 23 1010.1
20260508124724 45 360 1.0 5.0 0.00 0.00 0.00 25 1010.1
20260508124637 45 5 1.0 7.0 0.00 0.00 0.00 25 1010.1
20260508124509 45 255 1.0 7.0 0.00 0.00 0.00 24 1010.1
20260508124431 45 255 2.0 7.0 0.00 0.00 0.00 24 1010.1
20260508124233 45 236 2.0 7.0 0.00 0.00 0.00 24 1010.3
20260508124155 45 177 2.0 7.0 0.00 0.00 0.00 23 1010.3
20260508124040 44 244 2.0 7.0 0.00 0.00 0.00 22 1010.2
20260508124000 44 258 3.0 7.0 0.00 0.00 0.00 21 1010.2
20260508123840 44 225 4.0 7.0 0.00 0.00 0.00 20 1010.2
20260508123759 44 227 4.0 7.0 0.00 0.00 0.00 21 1010.1
20260508123610 44 148 4.0 7.0 0.00 0.00 0.00 22 1010.1
20260508123521 44 169 4.0 7.0 0.00 0.00 0.00 20 1010.1
20260508123349 44 180 4.0 7.0 0.00 0.00 0.00 20 1010.1
20260508123246 44 171 5.0 7.0 0.00 0.00 0.00 19 1010.1
20260508123026 44 184 3.0 5.0 0.00 0.00 0.00 12 1010.1
20260508122928 44 158 4.0 5.0 0.00 0.00 0.00 8 1010.1
20260508122832 44 203 4.0 5.0 0.00 0.00 0.00 6 1010.1
20260508122753 44 152 4.0 5.0 0.00 0.00 0.00 7 1010.1
20260508122715 44 187 3.0 6.0 0.00 0.00 0.00 3 1010.1
20260508122619 44 173 3.0 6.0 0.00 0.00 0.00 1 1010.0
20260508122354 44 136 2.0 5.0 0.00 0.00 0.00 1 1010.1
20260508122246 43 140 2.0 5.0 0.00 0.00 0.00 1 1010.1
20260508122117 43 165 2.0 6.0 0.00 0.00 0.00 1 1010.0
20260508122039 43 131 2.0 6.0 0.00 0.00 0.00 1 1010.0
20260508121911 43 154 2.0 6.0 0.00 0.00 0.00 1 1010.1
20260508121835 43 159 2.0 6.0 0.00 0.00 0.00 1 1010.1
20260508121625 43 159 3.0 6.0 0.00 0.00 0.00 1 1010.1
20260508121539 43 144 3.0 6.0 0.00 0.00 0.00 1 1010.0
20260508121443 43 162 3.0 6.0 0.00 0.00 0.00 1 1010.0
20260508121323 43 171 3.0 6.0 0.00 0.00 0.00 1 1010.0
20260508121237 43 165 3.0 6.0 0.00 0.00 0.00 1 1010.0
20260508121108 43 213 4.0 6.0 0.00 0.00 0.00 1 1010.0
20260508121029 43 184 4.0 6.0 0.00 0.00 0.00 1 1010.0
20260508120832 43 186 3.0 6.0 0.00 0.00 0.00 1 1010.0
20260508120754 42 178 4.0 6.0 0.00 0.00 0.00 1 1010.0
20260508120656 42 187 3.0 6.0 0.00 0.00 0.00 1 1010.0
20260508120619 42 178 2.0 6.0 0.00 0.00 0.00 1 1009.9
20260508120423 42 90 1.0 4.0 0.00 0.00 0.00 1 1009.8
20260508120326 42 88 2.0 4.0 0.00 0.00 0.00 1 1009.8
20260508120232 42 89 3.0 4.0 0.00 0.00 0.00 1 1009.8
20260508120154 42 92 3.0 4.0 0.00 0.00 0.00 1 1009.8
20260508120115 42 107 3.0 4.0 0.00 0.00 0.00 1 1009.8
20260508115947 41 140 1.0 3.0 0.00 0.00 0.00 1 1009.8
20260508115840 41 162 1.0 3.0 0.00 0.00 0.00 1 1009.8
20260508115743 41 113 0.0 3.0 0.00 0.00 0.00 1 1009.8
20260508115638 41 98 0.0 3.0 0.00 0.00 0.00 1 1009.8
20260508115538 40 99 0.0 3.0 0.00 0.00 0.00 1 1009.8
20260508115454 40 103 1.0 3.0 0.00 0.00 0.00 1 1009.8
20260508115406 40 103 1.0 3.0 0.00 0.00 0.00 1 1009.8
20260508115223 40 110 1.0 3.0 0.00 0.00 0.00 1 1009.8
20260508115126 39 110 1.0 3.0 0.00 0.00 0.00 1 1009.9
20260508115030 39 110 1.0 3.0 0.00 0.00 0.00 1 1009.8
20260508114953 39 110 2.0 3.0 0.00 0.00 0.00 1 1009.8
20260508114916 39 111 1.0 3.0 0.00 0.00 0.00 1 1009.8
20260508114739 39 14 1.0 3.0 0.00 0.00 0.00 1 1009.8
20260508114659 38 360 1.0 3.0 0.00 0.00 0.00 1 1009.8
20260508114531 38 107 2.0 4.0 0.00 0.00 0.00 1 1009.8
20260508114425 38 129 1.0 4.0 0.00 0.00 0.00 1 1009.8
20260508114243 38 337 0.0 4.0 0.00 0.00 0.00 1 1009.8
20260508114146 38 360 0.0 4.0 0.00 0.00 0.00 1 1009.8
20260508114055 38 106 1.0 4.0 0.00 0.00 0.00 1 1009.7
20260508114016 38 144 1.0 4.0 0.00 0.00 0.00 1 1009.7
20260508113846 38 180 2.0 4.0 0.00 0.00 0.00 1 1009.7
20260508113749 38 219 3.0 4.0 0.00 0.00 0.00 1 1009.7
20260508113645 38 227 2.0 4.0 0.00 0.00 0.00 1 1009.7
20260508113528 37 177 2.0 4.0 0.00 0.00 0.00 1 1009.7
20260508113451 37 173 2.0 4.0 0.00 0.00 0.00 1 1009.7
20260508113414 37 186 2.0 4.0 0.00 0.00 0.00 1 1009.8
20260508113237 37 211 1.0 4.0 0.00 0.00 0.00 1 1009.7
20260508113159 37 233 1.0 4.0 0.00 0.00 0.00 1 1009.7
20260508113117 37 213 0.0 1.0 0.00 0.00 0.00 1 1009.7
20260508112928 37 338 0.0 1.0 0.00 0.00 0.00 1 1009.7
20260508112844 37 332 0.0 1.0 0.00 0.00 0.00 1 1009.7
20260508112715 37 332 0.0 1.0 0.00 0.00 0.00 1 1009.7
20260508112614 37 331 0.0 1.0 0.00 0.00 0.00 1 1009.8
20260508112519 37 331 0.0 1.0 0.00 0.00 0.00 1 1009.7
20260508112442 37 331 0.0 1.0 0.00 0.00 0.00 1 1009.7
20260508112311 37 200 0.0 1.0 0.00 0.00 0.00 1 1009.7
20260508112225 37 200 0.0 1.0 0.00 0.00 0.00 1 1009.7
20260508112034 37 181 0.0 1.0 0.00 0.00 0.00 1 1009.6
20260508111951 37 65 0.0 1.0 0.00 0.00 0.00 1 1009.6
20260508111917 37 62 0.0 1.0 0.00 0.00 0.00 1 1009.6
20260508111733 37 36 0.0 1.0 0.00 0.00 0.00 1 1009.6
20260508111648 37 36 0.0 1.0 0.00 0.00 0.00 1 1009.6
20260508111508 36 36 0.0 1.0 0.00 0.00 0.00 1 1009.5
20260508111429 36 36 0.0 1.0 0.00 0.00 0.00 1 1009.5
20260508111232 36 36 0.0 1.0 0.00 0.00 0.00 1 1009.5
20260508111153 36 36 0.0 1.0 0.00 0.00 0.00 1 1009.5
20260508111058 36 36 0.0 1.0 0.00 0.00 0.00 1 1009.6
20260508110958 36 36 0.0 1.0 0.00 0.00 0.00 1 1009.6
20260508110900 36 36 0.0 2.0 0.00 0.00 0.00 1 1009.6
20260508110748 35 261 0.0 2.0 0.00 0.00 0.00 1 1009.5
20260508110648 35 261 0.0 2.0 0.00 0.00 0.00 1 1009.5
20260508110520 35 261 0.0 2.0 0.00 0.00 0.00 1 1009.5
20260508110414 35 261 0.0 2.0 0.00 0.00 0.00 1 1009.5
20260508110225 35 336 1.0 2.0 0.00 0.00 0.00 1 1009.4
20260508110138 35 340 1.0 2.0 0.00 0.00 0.00 1 1009.4
20260508105926 35 346 1.0 2.0 0.00 0.00 0.00 1 1009.4
20260508105843 34 32 0.0 1.0 0.00 0.00 0.00 1 1009.4
20260508105805 34 32 0.0 1.0 0.00 0.00 0.00 1 1009.4
20260508105727 34 267 0.0 1.0 0.00 0.00 0.00 1 1009.4
20260508105619 34 267 0.0 1.0 0.00 0.00 0.00 1 1009.4
20260508105434 34 267 0.0 1.0 0.00 0.00 0.00 1 1009.4
20260508105329 34 267 0.0 1.0 0.00 0.00 0.00 1 1009.4
20260508105224 34 350 0.0 1.0 0.00 0.00 0.00 1 1009.4
20260508105156 34 347 0.0 1.0 0.00 0.00 0.00 1 1009.4
20260508105117 34 313 0.0 1.0 0.00 0.00 0.00 1 1009.4
20260508105021 34 313 0.0 1.0 0.00 0.00 0.00 1 1009.3
20260508104943 34 253 0.0 1.0 0.00 0.00 0.00 1 1009.3
20260508104812 34 323 0.0 1.0 0.00 0.00 0.00 1 1009.4
20260508104727 34 323 0.0 1.0 0.00 0.00 0.00 1 1009.4
20260508104540 34 333 0.0 1.0 0.00 0.00 0.00 1 1009.3
20260508104504 34 336 0.0 1.0 0.00 0.00 0.00 1 1009.3
20260508104419 34 336 0.0 1.0 0.00 0.00 0.00 1 1009.4
20260508104229 34 312 0.0 1.0 0.00 0.00 0.00 1 1009.3
20260508104123 34 312 0.0 1.0 0.00 0.00 0.00 1 1009.2
20260508104046 34 311 0.0 1.0 0.00 0.00 0.00 1 1009.2
20260508103952 34 15 0.0 1.0 0.00 0.00 0.00 1 1009.2
20260508103915 34 15 0.0 1.0 0.00 0.00 0.00 1 1009.2
20260508103718 33 41 0.0 1.0 0.00 0.00 0.00 1 1009.2
20260508103635 33 41 0.0 1.0 0.00 0.00 0.00 1 1009.2
20260508103539 33 41 0.0 1.0 0.00 0.00 0.00 1 1009.2
20260508103443 33 308 0.0 1.0 0.00 0.00 0.00 1 1009.2
20260508103406 33 308 0.0 1.0 0.00 0.00 0.00 1 1009.2
20260508103308 33 308 0.0 1.0 0.00 0.00 0.00 1 1009.1
20260508103229 33 308 0.0 1.0 0.00 0.00 0.00 1 1009.1
20260508103033 33 305 0.0 2.0 0.00 0.00 0.00 1 1009.1
20260508102955 33 350 0.0 2.0 0.00 0.00 0.00 1 1009.1
20260508102837 33 350 0.0 2.0 0.00 0.00 0.00 1 1009.1
20260508102810 33 25 0.0 2.0 0.00 0.00 0.00 1 1009.1
20260508102714 33 25 0.0 2.0 0.00 0.00 0.00 1 1009.1
20260508102618 33 31 0.0 2.0 0.00 0.00 0.00 1 1009.1
20260508102540 33 34 0.0 2.0 0.00 0.00 0.00 1 1009.1
20260508102409 33 34 1.0 2.0 0.00 0.00 0.00 1 1009.1
20260508102323 33 337 0.0 2.0 0.00 0.00 0.00 1 1009.1
20260508102134 33 340 1.0 2.0 0.00 0.00 0.00 1 1009.0
20260508102047 32 340 1.0 2.0 0.00 0.00 0.00 1 1009.0
20260508101836 32 340 0.0 2.0 0.00 0.00 0.00 1 1009.0
20260508101751 32 340 0.0 2.0 0.00 0.00 0.00 1 1009.0
20260508101539 32 238 0.0 2.0 0.00 0.00 0.00 1 1009.0
20260508101439 32 238 1.0 2.0 0.00 0.00 0.00 1 1009.0
20260508101322 32 238 0.0 2.0 0.00 0.00 0.00 1 1009.0
20260508101244 32 237 0.0 0.0 0.00 0.00 0.00 1 1009.0
20260508101205 32 237 0.0 1.0 0.00 0.00 0.00 1 1009.0
20260508101110 32 237 0.0 1.0 0.00 0.00 0.00 1 1009.0
20260508101032 32 237 0.0 1.0 0.00 0.00 0.00 1 1009.0
20260508100836 32 237 0.0 1.0 0.00 0.00 0.00 1 1009.0
20260508100736 32 237 0.0 1.0 0.00 0.00 0.00 1 1009.0
20260508100624 31 323 0.0 1.0 0.00 0.00 0.00 1 1009.0
20260508100546 31 323 0.0 1.0 0.00 0.00 0.00 1 1009.0
20260508100448 31 323 0.0 1.0 0.00 0.00 0.00 1 1009.0
20260508100331 31 330 0.0 1.0 0.00 0.00 0.00 1 1009.0
20260508100255 31 344 0.0 1.0 0.00 0.00 0.00 1 1009.0
20260508100209 31 331 0.0 1.0 0.00 0.00 0.00 1 1009.0
20260508100031 31 355 0.0 1.0 0.00 0.00 0.00 1 1009.0
20260508095944 31 5 0.0 1.0 0.00 0.00 0.00 1 1009.0
20260508095734 31 5 0.0 1.0 0.00 0.00 0.00 1 1009.0
20260508095649 31 5 0.0 1.0 0.00 0.00 0.00 1 1008.9
20260508095444 31 5 0.0 0.0 0.00 0.00 0.00 1 1008.9
20260508095317 31 5 0.0 0.0 0.00 0.00 0.00 1 1008.8
20260508095249 31 5 0.0 0.0 0.00 0.00 0.00 1 1008.8
20260508095153 31 5 0.0 0.0 0.00 0.00 0.00 1 1008.8
20260508095033 31 5 0.0 0.0 0.00 0.00 0.00 1 1008.8
20260508094938 31 5 0.0 0.0 0.00 0.00 0.00 1 1008.9
20260508094840 31 5 0.0 0.0 0.00 0.00 0.00 1 1008.9
20260508094710 31 5 0.0 0.0 0.00 0.00 0.00 1 1008.9
20260508094624 31 5 0.0 0.0 0.00 0.00 0.00 1 1008.8
20260508094436 31 5 0.0 0.0 0.00 0.00 0.00 1 1008.9
20260508094400 31 5 0.0 0.0 0.00 0.00 0.00 1 1008.9
20260508094314 31 5 0.0 0.0 0.00 0.00 0.00 1 1008.9
20260508094125 31 5 0.0 0.0 0.00 0.00 0.00 1 1008.8
20260508094040 31 5 0.0 0.0 0.00 0.00 0.00 1 1008.8
20260508093944 31 5 0.0 0.0 0.00 0.00 0.00 1 1008.8
20260508093857 31 5 0.0 0.0 0.00 0.00 0.00 1 1008.7
20260508093800 31 5 0.0 0.0 0.00 0.00 0.00 1 1008.7
20260508093721 31 5 0.0 0.0 0.00 0.00 0.00 1 1008.7
20260508093604 31 5 0.0 0.0 0.00 0.00 0.00 1 1008.7
20260508093525 31 5 0.0 0.0 0.00 0.00 0.00 1 1008.7
20260508093340 31 5 0.0 0.0 0.00 0.00 0.00 1 1008.7
20260508093233 31 5 0.0 0.0 0.00 0.00 0.00 1 1008.7
20260508093157 31 5 0.0 0.0 0.00 0.00 0.00 1 1008.7
20260508093040 31 5 0.0 0.0 0.00 0.00 0.00 1 1008.7
20260508093004 31 5 0.0 0.0 0.00 0.00 0.00 1 1008.7
20260508092917 31 5 0.0 0.0 0.00 0.00 0.00 1 1008.7
20260508092747 31 5 0.0 0.0 0.00 0.00 0.00 1 1008.8
20260508092648 31 5 0.0 0.0 0.00 0.00 0.00 1 1008.8
20260508092528 31 5 0.0 0.0 0.00 0.00 0.00 1 1008.8
20260508092432 31 5 0.0 0.0 0.00 0.00 0.00 1 1008.8
20260508092353 31 5 0.0 0.0 0.00 0.00 0.00 1 1008.7
20260508092254 31 5 0.0 0.0 0.00 0.00 0.00 1 1008.7
20260508092138 31 5 0.0 0.0 0.00 0.00 0.00 1 1008.6
20260508092100 31 5 0.0 0.0 0.00 0.00 0.00 1 1008.7
20260508091923 31 5 0.0 0.0 0.00 0.00 0.00 1 1008.7
20260508091845 31 5 0.0 0.0 0.00 0.00 0.00 1 1008.7
20260508091630 31 5 0.0 0.0 0.00 0.00 0.00 1 1008.7
20260508091535 31 5 0.0 0.0 0.00 0.00 0.00 1 1008.7
20260508091437 31 5 0.0 0.0 0.00 0.00 0.00 1 1008.6
20260508091341 31 5 0.0 0.0 0.00 0.00 0.00 1 1008.6
20260508091234 31 5 0.0 0.0 0.00 0.00 0.00 1 1008.5
20260508091158 31 5 0.0 0.0 0.00 0.00 0.00 1 1008.5
20260508091024 31 5 0.0 0.0 0.00 0.00 0.00 1 1008.6
20260508090940 31 5 0.0 0.0 0.00 0.00 0.00 1 1008.6
20260508090839 31 5 0.0 0.0 0.00 0.00 0.00 1 1008.6
20260508090747 31 5 0.0 0.0 0.00 0.00 0.00 1 1008.6
20260508090709 31 5 0.0 0.0 0.00 0.00 0.00 1 1008.6
20260508090541 31 5 0.0 1.0 0.00 0.00 0.00 1 1008.6
20260508090433 31 5 0.0 1.0 0.00 0.00 0.00 1 1008.6
20260508090231 31 5 0.0 1.0 0.00 0.00 0.00 1 1008.6
20260508090133 31 5 0.0 1.0 0.00 0.00 0.00 1 1008.5
20260508085935 31 5 0.0 2.0 0.00 0.00 0.00 1 1008.6
20260508085859 31 5 0.0 2.0 0.00 0.00 0.00 1 1008.6
20260508085724 31 5 1.0 2.0 0.00 0.00 0.00 1 1008.5
20260508085637 31 5 1.0 2.0 0.00 0.00 0.00 1 1008.6
20260508085513 32 5 0.0 2.0 0.00 0.00 0.00 1 1008.6
20260508085435 32 5 0.0 2.0 0.00 0.00 0.00 1 1008.6
20260508085307 32 5 1.0 2.0 0.00 0.00 0.00 1 1008.6
20260508085219 32 5 1.0 2.0 0.00 0.00 0.00 1 1008.6
20260508085028 32 5 0.0 1.0 0.00 0.00 0.00 1 1008.6
20260508084943 32 5 0.0 1.0 0.00 0.00 0.00 1 1008.6
20260508084814 32 5 0.0 1.0 0.00 0.00 0.00 1 1008.5
20260508084737 32 5 0.0 1.0 0.00 0.00 0.00 1 1008.6
20260508084536 32 5 0.0 1.0 0.00 0.00 0.00 1 1008.6
20260508084500 32 5 0.0 1.0 0.00 0.00 0.00 1 1008.6
20260508084327 32 5 0.0 0.0 0.00 0.00 0.00 1 1008.5
20260508084242 32 5 0.0 0.0 0.00 0.00 0.00 1 1008.5
20260508084144 32 5 0.0 0.0 0.00 0.00 0.00 1 1008.6
20260508084048 32 5 0.0 0.0 0.00 0.00 0.00 1 1008.6
20260508084009 32 5 0.0 0.0 0.00 0.00 0.00 1 1008.5
20260508083839 32 5 0.0 0.0 0.00 0.00 0.00 1 1008.5
20260508083734 32 5 0.0 0.0 0.00 0.00 0.00 1 1008.5
20260508083604 32 5 0.0 0.0 0.00 0.00 0.00 1 1008.5
20260508083525 32 5 0.0 0.0 0.00 0.00 0.00 1 1008.5
20260508083330 32 5 0.0 0.0 0.00 0.00 0.00 1 1008.5
20260508083237 32 5 0.0 0.0 0.00 0.00 0.00 1 1008.5
20260508083139 32 5 0.0 0.0 0.00 0.00 0.00 1 1008.5
20260508083101 32 5 0.0 0.0 0.00 0.00 0.00 1 1008.5
20260508083024 32 5 0.0 0.0 0.00 0.00 0.00 1 1008.5
20260508082827 32 5 0.0 0.0 0.00 0.00 0.00 1 1008.5
20260508082750 32 5 0.0 0.0 0.00 0.00 0.00 1 1008.5
20260508082615 32 5 0.0 0.0 0.00 0.00 0.00 1 1008.4
20260508082539 32 5 0.0 0.0 0.00 0.00 0.00 1 1008.5
20260508082410 32 5 0.0 0.0 0.00 0.00 0.00 1 1008.5
20260508082336 32 5 0.0 0.0 0.00 0.00 0.00 1 1008.4
20260508082206 32 5 0.0 0.0 0.00 0.00 0.00 1 1008.4
20260508082121 32 5 0.0 0.0 0.00 0.00 0.00 1 1008.5
20260508081952 32 5 0.0 0.0 0.00 0.00 0.00 1 1008.5
20260508081826 32 5 0.0 0.0 0.00 0.00 0.00 1 1008.5
20260508081748 32 5 0.0 0.0 0.00 0.00 0.00 1 1008.5
20260508081709 32 5 0.0 0.0 0.00 0.00 0.00 1 1008.5
20260508081623 32 5 0.0 0.0 0.00 0.00 0.00 1 1008.4
20260508081504 32 5 0.0 0.0 0.00 0.00 0.00 1 1008.5
20260508081426 32 5 0.0 0.0 0.00 0.00 0.00 1 1008.4
20260508081229 32 5 0.0 2.0 0.00 0.00 0.00 1 1008.4
20260508081157 32 5 0.0 2.0 0.00 0.00 0.00 1 1008.4
20260508081040 32 5 0.0 2.0 0.00 0.00 0.00 1 1008.4
20260508081004 32 5 0.0 2.0 0.00 0.00 0.00 1 1008.4
20260508080825 32 5 0.0 2.0 0.00 0.00 0.00 1 1008.4
20260508080749 32 5 0.0 2.0 0.00 0.00 0.00 1 1008.4
20260508080711 32 5 0.0 2.0 0.00 0.00 0.00 1 1008.4
20260508080616 32 5 0.0 2.0 0.00 0.00 0.00 1 1008.4
20260508080537 32 5 0.0 2.0 0.00 0.00 0.00 1 1008.4
20260508080408 32 5 1.0 2.0 0.00 0.00 0.00 1 1008.4
20260508080226 32 360 0.0 2.0 0.00 0.00 0.00 1 1008.5
20260508080130 32 360 0.0 2.0 0.00 0.00 0.00 1 1008.4
20260508080018 32 360 0.0 2.0 0.00 0.00 0.00 1 1008.4
20260508075850 32 360 0.0 1.0 0.00 0.00 0.00 1 1008.5
20260508075742 32 360 0.0 1.0 0.00 0.00 0.00 1 1008.5
20260508075602 32 360 0.0 0.0 0.00 0.00 0.00 1 1008.4
20260508075523 32 360 0.0 0.0 0.00 0.00 0.00 1 1008.4
20260508075354 32 360 0.0 0.0 0.00 0.00 0.00 1 1008.4
20260508075230 32 360 0.0 0.0 0.00 0.00 0.00 1 1008.4
20260508075123 32 360 0.0 0.0 0.00 0.00 0.00 1 1008.4
20260508075045 32 360 0.0 0.0 0.00 0.00 0.00 1 1008.5
20260508074833 32 360 0.0 0.0 0.00 0.00 0.00 1 1008.4
20260508074735 32 360 0.0 0.0 0.00 0.00 0.00 1 1008.4
20260508074638 32 360 0.0 0.0 0.00 0.00 0.00 1 1008.4
20260508074558 32 360 0.0 0.0 0.00 0.00 0.00 1 1008.4
20260508074408 32 360 0.0 0.0 0.00 0.00 0.00 1 1008.3
20260508074222 32 360 0.0 0.0 0.00 0.00 0.00 1 1008.3
20260508074126 32 360 0.0 0.0 0.00 0.00 0.00 1 1008.3
20260508074047 32 360 0.0 0.0 0.00 0.00 0.00 1 1008.3
20260508073833 32 360 0.0 0.0 0.00 0.00 0.00 1 1008.2
20260508073756 32 360 0.0 0.0 0.00 0.00 0.00 1 1008.2
20260508073639 32 360 0.0 0.0 0.00 0.00 0.00 1 1008.3
20260508073543 32 360 0.0 0.0 0.00 0.00 0.00 1 1008.3
20260508073436 32 360 0.0 0.0 0.00 0.00 0.00 1 1008.2
20260508073339 32 360 0.0 0.0 0.00 0.00 0.00 1 1008.2
20260508073301 32 360 0.0 0.0 0.00 0.00 0.00 1 1008.2
20260508073222 32 360 0.0 0.0 0.00 0.00 0.00 1 1008.2
20260508073030 32 360 0.0 0.0 0.00 0.00 0.00 1 1008.3
20260508072930 32 360 0.0 0.0 0.00 0.00 0.00 1 1008.3
20260508072834 32 360 0.0 0.0 0.00 0.00 0.00 1 1008.3
20260508072756 32 360 0.0 0.0 0.00 0.00 0.00 1 1008.3
20260508072717 32 360 0.0 0.0 0.00 0.00 0.00 1 1008.3
20260508072540 32 360 0.0 0.0 0.00 0.00 0.00 1 1008.3
20260508072441 32 360 0.0 0.0 0.00 0.00 0.00 1 1008.3
20260508072344 32 360 0.0 0.0 0.00 0.00 0.00 1 1008.3
20260508072222 32 360 0.0 0.0 0.00 0.00 0.00 1 1008.2
20260508072125 32 360 0.0 0.0 0.00 0.00 0.00 1 1008.2
20260508072051 32 360 0.0 0.0 0.00 0.00 0.00 1 1008.2
20260508071834 32 360 0.0 0.0 0.00 0.00 0.00 1 1008.2
20260508071735 32 360 0.0 0.0 0.00 0.00 0.00 1 1008.2
20260508071638 32 360 0.0 0.0 0.00 0.00 0.00 1 1008.2
20260508071558 32 360 0.0 0.0 0.00 0.00 0.00 1 1008.2
20260508071430 32 360 0.0 0.0 0.00 0.00 0.00 1 1008.2
20260508071323 32 360 0.0 0.0 0.00 0.00 0.00 1 1008.2
20260508071132 32 360 0.0 0.0 0.00 0.00 0.00 1 1008.2
20260508071034 32 360 0.0 0.0 0.00 0.00 0.00 1 1008.2
20260508070837 33 360 0.0 0.0 0.00 0.00 0.00 1 1008.3
20260508070743 33 360 0.0 0.0 0.00 0.00 0.00 1 1008.3
20260508070627 33 360 0.0 0.0 0.00 0.00 0.00 1 1008.3
20260508070549 33 360 0.0 0.0 0.00 0.00 0.00 1 1008.3
20260508070431 33 360 0.0 0.0 0.00 0.00 0.00 1 1008.3
20260508070354 33 360 0.0 0.0 0.00 0.00 0.00 1 1008.3
20260508070316 33 360 0.0 0.0 0.00 0.00 0.00 1 1008.3
20260508070139 33 360 0.0 0.0 0.00 0.00 0.00 1 1008.3
20260508070040 33 360 0.0 0.0 0.00 0.00 0.00 1 1008.3
20260508065944 33 360 0.0 0.0 0.00 0.00 0.00 1 1008.3
20260508065844 33 360 0.0 0.0 0.00 0.00 0.00 1 1008.3
20260508065629 33 360 0.0 0.0 0.00 0.00 0.00 1 1008.2
20260508065534 33 360 0.0 0.0 0.00 0.00 0.00 1 1008.2
20260508065446 33 360 0.0 0.0 0.00 0.00 0.00 1 1008.3
20260508065335 33 360 0.0 0.0 0.00 0.00 0.00 1 1008.2
20260508065241 33 360 0.0 0.0 0.00 0.00 0.00 1 1008.2
20260508065202 33 360 0.0 0.0 0.00 0.00 0.00 1 1008.3
20260508065033 33 360 0.0 0.0 0.00 0.00 0.00 1 1008.2
20260508064925 33 360 0.0 0.0 0.00 0.00 0.00 1 1008.3
20260508064744 33 360 0.0 1.0 0.00 0.00 0.00 1 1008.3
20260508064645 33 360 0.0 1.0 0.00 0.00 0.00 1 1008.3
20260508064533 33 360 0.0 1.0 0.00 0.00 0.00 1 1008.3
20260508064444 33 360 0.0 1.0 0.00 0.00 0.00 1 1008.3
20260508064346 33 360 0.0 1.0 0.00 0.00 0.00 1 1008.3
20260508064251 33 360 0.0 1.0 0.00 0.00 0.00 1 1008.3
20260508064212 33 360 0.0 1.0 0.00 0.00 0.00 1 1008.3
20260508063951 33 360 0.0 1.0 0.00 0.00 0.00 1 1008.4
20260508063844 33 360 0.0 1.0 0.00 0.00 0.00 1 1008.4
20260508063715 33 360 0.0 1.0 0.00 0.00 0.00 1 1008.4
20260508063624 33 360 0.0 1.0 0.00 0.00 0.00 1 1008.4
20260508063427 33 360 0.0 1.0 0.00 0.00 0.00 1 1008.3
20260508063351 33 360 0.0 1.0 0.00 0.00 0.00 1 1008.3
20260508063237 33 360 0.0 1.0 0.00 0.00 0.00 1 1008.3
20260508063137 33 360 0.0 1.0 0.00 0.00 0.00 1 1008.3
20260508063102 33 360 0.0 0.0 0.00 0.00 0.00 1 1008.3
20260508063006 33 360 0.0 0.0 0.00 0.00 0.00 1 1008.3
20260508062927 33 360 0.0 0.0 0.00 0.00 0.00 1 1008.3
20260508062730 33 360 0.0 0.0 0.00 0.00 0.00 1 1008.3
20260508062633 33 360 0.0 0.0 0.00 0.00 0.00 1 1008.4
20260508062536 33 360 0.0 0.0 0.00 0.00 0.00 1 1008.3
20260508062459 33 360 0.0 0.0 0.00 0.00 0.00 1 1008.3
20260508062433 33 360 0.0 0.0 0.00 0.00 0.00 1 1008.4
20260508062242 33 360 0.0 0.0 0.00 0.00 0.00 1 1008.3
20260508062202 33 360 0.0 0.0 0.00 0.00 0.00 1 1008.3
20260508062107 33 360 0.0 0.0 0.00 0.00 0.00 1 1008.3
20260508062028 33 360 0.0 0.0 0.00 0.00 0.00 1 1008.4
20260508061837 33 360 0.0 0.0 0.00 0.00 0.00 1 1008.4
20260508061729 33 360 0.0 0.0 0.00 0.00 0.00 1 1008.3
20260508061539 33 360 0.0 0.0 0.00 0.00 0.00 1 1008.3
20260508061442 33 360 0.0 0.0 0.00 0.00 0.00 1 1008.3
20260508061336 33 360 0.0 0.0 0.00 0.00 0.00 1 1008.5
20260508061223 33 360 0.0 0.0 0.00 0.00 0.00 1 1008.4
20260508061144 33 360 0.0 0.0 0.00 0.00 0.00 1 1008.4
20260508061016 33 360 0.0 0.0 0.00 0.00 0.00 1 1008.4
20260508060907 33 360 0.0 0.0 0.00 0.00 0.00 1 1008.4
20260508060728 33 360 0.0 0.0 0.00 0.00 0.00 1 1008.5
20260508060641 33 360 0.0 0.0 0.00 0.00 0.00 1 1008.5
20260508060511 33 360 0.0 0.0 0.00 0.00 0.00 1 1008.4
20260508060433 33 360 0.0 0.0 0.00 0.00 0.00 1 1008.4
20260508060235 33 360 0.0 1.0 0.00 0.00 0.00 1 1008.5
20260508060157 33 360 0.0 1.0 0.00 0.00 0.00 1 1008.5
20260508060100 33 360 0.0 1.0 0.00 0.00 0.00 1 1008.5
20260508060006 33 360 0.0 1.0 0.00 0.00 0.00 1 1008.5
20260508055908 33 360 0.0 1.0 0.00 0.00 0.00 1 1008.5
20260508055731 33 360 0.0 1.0 0.00 0.00 0.00 1 1008.5
20260508055651 33 360 0.0 1.0 0.00 0.00 0.00 1 1008.5
20260508055554 33 360 0.0 1.0 0.00 0.00 0.00 1 1008.5
20260508055458 33 360 0.0 1.0 0.00 0.00 0.00 1 1008.5
20260508055420 34 360 1.0 1.0 0.00 0.00 0.00 1 1008.5
20260508055222 34 360 0.0 1.0 0.00 0.00 0.00 1 1008.5
20260508055123 34 360 0.0 1.0 0.00 0.00 0.00 1 1008.5
20260508055026 34 360 0.0 1.0 0.00 0.00 0.00 1 1008.5
20260508054954 34 360 0.0 0.0 0.00 0.00 0.00 1 1008.5
20260508054915 34 360 0.0 0.0 0.00 0.00 0.00 1 1008.5
20260508054739 34 360 0.0 0.0 0.00 0.00 0.00 1 1008.4
20260508054700 34 360 0.0 0.0 0.00 0.00 0.00 1 1008.4
20260508054423 34 360 0.0 0.0 0.00 0.00 0.00 1 1008.4
20260508054336 34 360 0.0 0.0 0.00 0.00 0.00 1 1008.4
20260508054247 34 360 0.0 0.0 0.00 0.00 0.00 1 1008.4
20260508054006 34 360 0.0 0.0 0.00 0.00 0.00 1 1008.5
20260508053921 34 360 0.0 0.0 0.00 0.00 0.00 1 1008.5
20260508053736 34 360 0.0 0.0 0.00 0.00 0.00 1 1008.5
20260508053659 34 360 0.0 0.0 0.00 0.00 0.00 1 1008.5
20260508053541 34 360 0.0 0.0 0.00 0.00 0.00 1 1008.6
20260508053441 34 360 0.0 0.0 0.00 0.00 0.00 1 1008.6
20260508053311 34 360 0.0 0.0 0.00 0.00 0.00 1 1008.5
20260508053225 34 360 0.0 0.0 0.00 0.00 0.00 1 1008.5
20260508053035 34 360 0.0 0.0 0.00 0.00 0.00 1 1008.5
20260508052952 34 360 0.0 0.0 0.00 0.00 0.00 1 1008.5
20260508052913 34 360 0.0 0.0 0.00 0.00 0.00 1 1008.5
20260508052726 34 360 0.0 0.0 0.00 0.00 0.00 1 1008.6
20260508052631 34 360 0.0 0.0 0.00 0.00 0.00 1 1008.6
20260508052533 34 360 0.0 0.0 0.00 0.00 0.00 1 1008.6
20260508052457 34 360 0.0 0.0 0.00 0.00 0.00 1 1008.6
20260508052418 34 360 0.0 0.0 0.00 0.00 0.00 1 1008.6
20260508052322 34 360 0.0 0.0 0.00 0.00 0.00 1 1008.6
20260508052244 34 360 0.0 0.0 0.00 0.00 0.00 1 1008.6
20260508052113 34 360 0.0 0.0 0.00 0.00 0.00 1 1008.6
20260508052027 34 360 0.0 0.0 0.00 0.00 0.00 1 1008.6
20260508051835 34 360 0.0 0.0 0.00 0.00 0.00 1 1008.6
20260508051735 34 360 0.0 0.0 0.00 0.00 0.00 1 1008.6
20260508051538 34 360 0.0 0.0 0.00 0.00 0.00 1 1008.6
20260508051446 34 360 0.0 0.0 0.00 0.00 0.00 1 1008.6
20260508051350 34 360 0.0 0.0 0.00 0.00 0.00 1 1008.7
20260508051231 34 360 0.0 0.0 0.00 0.00 0.00 1 1008.7
20260508051134 34 360 0.0 0.0 0.00 0.00 0.00 1 1008.7
20260508051057 34 360 0.0 0.0 0.00 0.00 0.00 1 1008.7
20260508050915 34 360 0.0 0.0 0.00 0.00 0.00 1 1008.7
20260508050831 34 360 0.0 0.0 0.00 0.00 0.00 1 1008.8
20260508050640 34 360 0.0 0.0 0.00 0.00 0.00 1 1008.8
20260508050537 35 360 0.0 0.0 0.00 0.00 0.00 1 1008.8
20260508050424 35 360 0.0 0.0 0.00 0.00 0.00 1 1008.8
20260508050345 35 360 0.0 0.0 0.00 0.00 0.00 1 1008.8
20260508050306 35 360 0.0 0.0 0.00 0.00 0.00 1 1008.8
20260508050138 34 360 0.0 0.0 0.00 0.00 0.00 1 1008.8
20260508050031 35 360 0.0 0.0 0.00 0.00 0.00 1 1008.8
20260508045840 35 360 0.0 0.0 0.00 0.00 0.00 1 1008.8
20260508045733 34 360 0.0 0.0 0.00 0.00 0.00 1 1008.9
20260508045656 34 360 0.0 0.0 0.00 0.00 0.00 1 1008.9
20260508045602 34 360 0.0 0.0 0.00 0.00 0.00 1 1008.8
20260508045523 34 360 0.0 0.0 0.00 0.00 0.00 1 1008.8
20260508045331 34 360 0.0 0.0 0.00 0.00 0.00 1 1008.8
20260508045232 34 360 0.0 0.0 0.00 0.00 0.00 1 1008.9
20260508045134 34 360 0.0 0.0 0.00 0.00 0.00 1 1008.9
20260508045056 34 360 0.0 0.0 0.00 0.00 0.00 1 1008.9
20260508045017 34 360 0.0 0.0 0.00 0.00 0.00 1 1008.8
20260508044920 34 360 0.0 0.0 0.00 0.00 0.00 1 1008.9
20260508044840 34 360 0.0 0.0 0.00 0.00 0.00 1 1008.9
20260508044710 34 360 0.0 0.0 0.00 0.00 0.00 1 1008.9
20260508044626 34 360 0.0 0.0 0.00 0.00 0.00 1 1008.9
20260508044456 34 360 0.0 0.0 0.00 0.00 0.00 1 1008.9
20260508044358 34 360 0.0 0.0 0.00 0.00 0.00 1 1008.9
20260508044311 34 360 0.0 0.0 0.00 0.00 0.00 1 1008.8
20260508044134 34 360 0.0 0.0 0.00 0.00 0.00 1 1008.9
20260508044034 34 360 0.0 0.0 0.00 0.00 0.00 1 1008.9
20260508043940 34 360 0.0 0.0 0.00 0.00 0.00 1 1008.9
20260508043840 34 360 0.0 0.0 0.00 0.00 0.00 1 1008.9
20260508043708 34 360 0.0 0.0 0.00 0.00 0.00 1 1008.9
20260508043624 34 360 0.0 0.0 0.00 0.00 0.00 1 1009.0
20260508043433 34 360 0.0 0.0 0.00 0.00 0.00 1 1009.0
20260508043327 34 360 0.0 0.0 0.00 0.00 0.00 1 1008.9
20260508043249 34 360 0.0 0.0 0.00 0.00 0.00 1 1008.9
20260508043126 34 360 0.0 0.0 0.00 0.00 0.00 1 1009.0
20260508043041 35 360 0.0 0.0 0.00 0.00 0.00 1 1009.0
20260508042911 35 360 0.0 0.0 0.00 0.00 0.00 1 1009.0
20260508042833 35 360 0.0 0.0 0.00 0.00 0.00 1 1009.0
20260508042635 35 360 0.0 0.0 0.00 0.00 0.00 1 1009.0
20260508042559 35 360 0.0 0.0 0.00 0.00 0.00 1 1009.0
20260508042424 35 360 0.0 1.0 0.00 0.00 0.00 1 1009.0
20260508042338 35 360 0.0 1.0 0.00 0.00 0.00 1 1009.0
20260508042245 35 360 0.0 1.0 0.00 0.00 0.00 1 1009.0
20260508042207 35 360 0.0 1.0 0.00 0.00 0.00 1 1009.0
20260508042122 35 360 0.0 1.0 0.00 0.00 0.00 1 1009.0
20260508041934 35 360 0.0 1.0 0.00 0.00 0.00 1 1009.0
20260508041827 35 360 0.0 1.0 0.00 0.00 0.00 1 1009.0
20260508041749 35 360 0.0 1.0 0.00 0.00 0.00 1 1009.0
20260508041654 35 360 0.0 1.0 0.00 0.00 0.00 1 1009.0
20260508041617 35 360 0.0 1.0 0.00 0.00 0.00 1 1009.0
20260508041446 35 360 0.0 1.0 0.00 0.00 0.00 1 1009.0
20260508041342 35 360 0.0 1.0 0.00 0.00 0.00 1 1009.0
20260508041304 35 360 0.0 1.0 0.00 0.00 0.00 1 1008.9
20260508041208 35 360 0.0 1.0 0.00 0.00 0.00 1 1009.0
20260508041123 35 360 0.0 1.0 0.00 0.00 0.00 1 1009.0
20260508040933 35 360 0.0 1.0 0.00 0.00 0.00 1 1009.0
20260508040849 35 360 0.0 1.0 0.00 0.00 0.00 1 1009.0
20260508040822 35 360 0.0 1.0 0.00 0.00 0.00 1 1008.9
20260508040634 35 360 0.0 1.0 0.00 0.00 0.00 1 1009.0
20260508040527 35 360 0.0 0.0 0.00 0.00 0.00 1 1008.9
20260508040452 35 360 0.0 0.0 0.00 0.00 0.00 1 1008.9
20260508040355 35 360 0.0 0.0 0.00 0.00 0.00 1 1009.0
20260508040242 35 360 0.0 0.0 0.00 0.00 0.00 1 1009.0
20260508040125 35 360 0.0 0.0 0.00 0.00 0.00 1 1009.0
20260508040049 35 360 0.0 0.0 0.00 0.00 0.00 1 1009.0
20260508035924 35 360 0.0 0.0 0.00 0.00 0.00 1 1008.9
20260508035830 35 360 0.0 0.0 0.00 0.00 0.00 1 1008.9
20260508035750 35 360 0.0 0.0 0.00 0.00 0.00 1 1008.9
20260508035622 35 360 0.0 0.0 0.00 0.00 0.00 1 1008.9
20260508035536 35 360 0.0 0.0 0.00 0.00 0.00 1 1008.9
20260508035326 35 360 0.0 0.0 0.00 0.00 0.00 1 1008.9
20260508035223 35 360 0.0 0.0 0.00 0.00 0.00 1 1008.8
20260508035146 36 360 0.0 0.0 0.00 0.00 0.00 1 1008.8
20260508035041 35 360 0.0 0.0 0.00 0.00 0.00 1 1008.8
20260508034945 36 360 0.0 0.0 0.00 0.00 0.00 1 1008.8
20260508034828 36 360 0.0 0.0 0.00 0.00 0.00 1 1008.9
20260508034750 36 360 0.0 0.0 0.00 0.00 0.00 1 1008.9
20260508034632 36 360 0.0 0.0 0.00 0.00 0.00 1 1008.9
20260508034554 36 360 0.0 0.0 0.00 0.00 0.00 1 1008.9
20260508034517 36 360 0.0 0.0 0.00 0.00 0.00 1 1008.9
20260508034344 36 360 0.0 0.0 0.00 0.00 0.00 1 1008.9
20260508034225 36 360 0.0 0.0 0.00 0.00 0.00 1 1008.9
20260508034139 36 360 0.0 0.0 0.00 0.00 0.00 1 1008.9
20260508034040 36 360 0.0 0.0 0.00 0.00 0.00 1 1008.9
20260508033943 36 360 0.0 0.0 0.00 0.00 0.00 1 1008.9
20260508033846 36 360 0.0 0.0 0.00 0.00 0.00 1 1008.9
20260508033807 36 360 0.0 0.0 0.00 0.00 0.00 1 1008.8
20260508033641 36 360 0.0 0.0 0.00 0.00 0.00 1 1008.9
20260508033543 36 360 0.0 0.0 0.00 0.00 0.00 1 1008.9
20260508033429 36 360 0.0 0.0 0.00 0.00 0.00 1 1008.9
20260508033349 36 360 0.0 0.0 0.00 0.00 0.00 1 1008.9
20260508033220 36 360 0.0 0.0 0.00 0.00 0.00 1 1008.8
20260508033115 36 360 0.0 0.0 0.00 0.00 0.00 1 1008.8
20260508032924 36 360 0.0 0.0 0.00 0.00 0.00 1 1008.8
20260508032839 36 360 0.0 0.0 0.00 0.00 0.00 1 1008.8
20260508032709 36 360 0.0 0.0 0.00 0.00 0.00 1 1008.8
20260508032630 36 360 0.0 0.0 0.00 0.00 0.00 1 1008.9
20260508032433 36 360 0.0 1.0 0.00 0.00 0.00 1 1008.9
20260508032357 36 360 0.0 1.0 0.00 0.00 0.00 1 1008.9
20260508032225 36 360 0.0 1.0 0.00 0.00 0.00 1 1008.9
20260508032141 36 360 0.0 1.0 0.00 0.00 0.00 1 1008.9
20260508031929 36 360 0.0 1.0 0.00 0.00 0.00 1 1008.8
20260508031842 36 360 0.0 1.0 0.00 0.00 0.00 1 1008.9
20260508031714 36 360 0.0 1.0 0.00 0.00 0.00 1 1008.8
20260508031636 36 360 0.0 0.0 0.00 0.00 0.00 1 1008.8
20260508031506 36 360 0.0 0.0 0.00 0.00 0.00 1 1008.8
20260508031420 36 360 0.0 0.0 0.00 0.00 0.00 1 1008.8
20260508031231 36 360 0.0 0.0 0.00 0.00 0.00 1 1008.8
20260508031145 36 360 0.0 0.0 0.00 0.00 0.00 1 1008.8
20260508031020 36 360 0.0 0.0 0.00 0.00 0.00 1 1008.8
20260508030941 36 360 0.0 0.0 0.00 0.00 0.00 1 1008.8
20260508030805 36 360 0.0 0.0 0.00 0.00 0.00 1 1008.7
20260508030728 36 360 0.0 0.0 0.00 0.00 0.00 1 1008.6
20260508030557 36 360 0.0 0.0 0.00 0.00 0.00 1 1008.7
20260508030500 36 360 0.0 0.0 0.00 0.00 0.00 1 1008.7
20260508030416 36 360 0.0 0.0 0.00 0.00 0.00 1 1008.7
20260508030225 36 360 0.0 0.0 0.00 0.00 0.00 1 1008.7
20260508030139 36 360 0.0 0.0 0.00 0.00 0.00 1 1008.7
20260508030041 36 360 0.0 0.0 0.00 0.00 0.00 1 1008.7
20260508025945 36 360 0.0 0.0 0.00 0.00 0.00 1 1008.7
20260508025850 36 360 0.0 0.0 0.00 0.00 0.00 1 1008.7
20260508025721 36 360 0.0 0.0 0.00 0.00 0.00 1 1008.7
20260508025635 36 360 0.0 0.0 0.00 0.00 0.00 1 1008.8
20260508025506 36 360 0.0 0.0 0.00 0.00 0.00 1 1008.8
20260508025428 36 360 0.0 0.0 0.00 0.00 0.00 1 1008.8
20260508025230 36 360 0.0 0.0 0.00 0.00 0.00 1 1008.8
20260508025151 36 360 0.0 0.0 0.00 0.00 0.00 1 1008.8
20260508025036 36 360 0.0 0.0 0.00 0.00 0.00 1 1008.7
20260508024930 36 360 0.0 0.0 0.00 0.00 0.00 1 1008.8
20260508024852 36 360 0.0 0.0 0.00 0.00 0.00 1 1008.8
20260508024818 36 360 0.0 0.0 0.00 0.00 0.00 1 1008.8
20260508024719 36 360 0.0 0.0 0.00 0.00 0.00 1 1008.8
20260508024521 37 360 0.0 0.0 0.00 0.00 0.00 1 1008.9
20260508024445 37 360 0.0 0.0 0.00 0.00 0.00 1 1008.9
20260508024349 37 360 0.0 0.0 0.00 0.00 0.00 1 1008.9
20260508024310 37 360 0.0 0.0 0.00 0.00 0.00 1 1008.9
20260508024118 37 360 0.0 0.0 0.00 0.00 0.00 1 1008.9
20260508024011 37 360 0.0 0.0 0.00 0.00 0.00 1 1008.9
20260508023818 37 360 0.0 0.0 0.00 0.00 0.00 1 1008.9
20260508023740 37 360 0.0 0.0 0.00 0.00 0.00 1 1008.9
20260508023550 37 360 0.0 0.0 0.00 0.00 0.00 1 1008.9
20260508023429 37 360 0.0 0.0 0.00 0.00 0.00 1 1008.8
20260508023332 37 360 0.0 0.0 0.00 0.00 0.00 1 1008.8
20260508023306 37 360 0.0 0.0 0.00 0.00 0.00 1 1008.8
20260508023204 37 360 0.0 0.0 0.00 0.00 0.00 1 1008.9
20260508023108 37 360 0.0 0.0 0.00 0.00 0.00 1 1008.8
20260508023030 37 360 0.0 0.0 0.00 0.00 0.00 1 1008.9
20260508022834 37 360 0.0 0.0 0.00 0.00 0.00 1 1008.9
20260508022736 37 360 0.0 0.0 0.00 0.00 0.00 1 1008.9
20260508022639 37 360 0.0 0.0 0.00 0.00 0.00 1 1008.9
20260508022547 37 360 0.0 0.0 0.00 0.00 0.00 1 1008.9
20260508022510 37 360 0.0 0.0 0.00 0.00 0.00 1 1008.9
20260508022332 37 360 0.0 0.0 0.00 0.00 0.00 1 1008.9
20260508022255 37 360 0.0 0.0 0.00 0.00 0.00 1 1008.9
20260508022130 37 360 0.0 0.0 0.00 0.00 0.00 1 1008.9
20260508022002 37 360 0.0 0.0 0.00 0.00 0.00 1 1008.8
20260508021835 37 360 0.0 0.0 0.00 0.00 0.00 1 1008.8
20260508021756 37 360 0.0 0.0 0.00 0.00 0.00 1 1008.8
20260508021640 37 360 0.0 0.0 0.00 0.00 0.00 1 1008.8
20260508021608 37 360 0.0 0.0 0.00 0.00 0.00 1 1008.8
20260508021423 37 360 0.0 0.0 0.00 0.00 0.00 1 1008.8
20260508021326 37 360 0.0 0.0 0.00 0.00 0.00 1 1008.8
20260508021249 37 360 0.0 0.0 0.00 0.00 0.00 1 1008.8
20260508021209 38 360 0.0 0.0 0.00 0.00 0.00 1 1008.8
20260508021054 38 360 0.0 0.0 0.00 0.00 0.00 1 1008.8
20260508020935 38 360 0.0 0.0 0.00 0.00 0.00 1 1008.8
20260508020838 38 360 0.0 0.0 0.00 0.00 0.00 1 1008.8
20260508020802 38 360 0.0 0.0 0.00 0.00 0.00 1 1008.8
20260508020724 38 360 0.0 0.0 0.00 0.00 0.00 1 1008.8
20260508020610 38 360 0.0 0.0 0.00 0.00 0.00 1 1008.7
20260508020424 38 360 0.0 0.0 0.00 0.00 0.00 1 1008.7
20260508020329 38 360 0.0 0.0 0.00 0.00 0.00 1 1008.7
20260508020250 38 360 0.0 0.0 0.00 0.00 0.00 1 1008.7
20260508020031 38 360 0.0 0.0 0.00 0.00 0.00 1 1008.6
20260508015934 38 360 0.0 0.0 0.00 0.01 0.00 1 1008.6
20260508015837 38 360 0.0 0.0 0.00 0.01 0.00 1 1008.8
20260508015759 38 360 0.0 0.0 0.00 0.01 0.00 1 1008.8
20260508015719 38 360 0.0 0.0 0.00 0.01 0.00 1 1008.7
20260508015536 38 360 0.0 0.0 0.00 0.01 0.00 1 1008.7
20260508015459 38 360 0.0 0.0 0.00 0.01 0.00 1 1008.7
20260508015325 38 360 0.0 0.0 0.00 0.01 0.00 1 1008.6
20260508015239 39 360 0.0 0.0 0.00 0.01 0.00 1 1008.6
20260508015109 39 360 0.0 0.0 0.00 0.01 0.00 1 1008.6
20260508015030 39 360 0.0 0.0 0.00 0.01 0.00 1 1008.6
20260508014813 39 360 0.0 0.0 0.00 0.01 0.00 1 1008.6
20260508014746 39 360 0.0 0.0 0.00 0.01 0.00 1 1008.6
20260508014614 39 360 0.0 0.0 0.00 0.01 0.00 1 1008.6
20260508014540 39 360 0.0 0.0 0.00 0.01 0.00 1 1008.6
20260508014442 39 360 0.0 0.0 0.00 0.01 0.00 1 1008.5
20260508014325 39 360 0.0 0.0 0.00 0.01 0.00 1 1008.5
20260508014248 39 360 0.0 0.0 0.00 0.01 0.00 1 1008.5
20260508014123 39 360 0.0 1.0 0.00 0.01 0.00 1 1008.5
20260508014026 39 360 0.0 1.0 0.00 0.01 0.00 1 1008.5
20260508013953 39 360 0.0 1.0 0.00 0.01 0.00 1 1008.5
20260508013735 39 360 0.0 1.0 0.00 0.01 0.00 1 1008.5
20260508013638 39 360 0.0 1.0 0.00 0.01 0.00 1 1008.4
20260508013541 39 360 0.0 1.0 0.00 0.01 0.00 1 1008.5
20260508013505 39 360 0.0 1.0 0.00 0.01 0.00 1 1008.5
20260508013426 39 360 0.0 1.0 0.00 0.01 0.00 1 1008.4
20260508013228 40 360 0.0 1.0 0.00 0.01 0.00 1 1008.4
20260508013151 40 360 0.0 0.0 0.00 0.01 0.00 1 1008.4
20260508013034 40 360 0.0 0.0 0.00 0.01 0.00 1 1008.3
20260508013000 40 360 0.0 0.0 0.00 0.01 0.00 1 1008.3
20260508012923 40 360 0.0 0.0 0.00 0.01 0.00 1 1008.4
20260508012724 40 360 0.0 0.0 0.00 0.01 0.00 1 1008.4
20260508012648 40 360 0.0 0.0 0.00 0.01 0.00 1 1008.4
20260508012532 40 360 0.0 0.0 0.00 0.01 0.00 1 1008.4
20260508012455 40 360 0.0 0.0 0.00 0.01 0.00 1 1008.4
20260508012340 40 360 0.0 0.0 0.00 0.01 0.00 1 1008.4
20260508012239 40 360 0.0 0.0 0.00 0.01 0.00 1 1008.4
20260508012111 40 360 0.0 1.0 0.00 0.01 0.00 1 1008.4
20260508012005 40 360 0.0 1.0 0.00 0.01 0.00 1 1008.4
20260508011925 40 360 0.0 1.0 0.00 0.01 0.00 1 1008.4
20260508011738 40 360 0.0 1.0 0.00 0.01 0.00 1 1008.4
20260508011631 40 360 0.0 1.0 0.00 0.01 0.00 1 1008.4
20260508011442 41 360 0.0 1.0 0.00 0.01 0.00 1 1008.4
20260508011339 41 360 0.0 1.0 0.00 0.01 0.00 1 1008.3
20260508011233 41 360 0.0 1.0 0.00 0.01 0.00 2 1008.3
20260508011134 41 360 0.0 0.0 0.00 0.01 0.00 2 1008.3
20260508011050 41 360 0.0 0.0 0.00 0.01 0.00 2 1008.3
20260508010951 41 360 0.0 0.0 0.00 0.01 0.00 2 1008.3
20260508010825 41 360 0.0 0.0 0.00 0.01 0.00 4 1008.2
20260508010718 41 360 0.0 0.0 0.00 0.01 0.00 5 1008.2
20260508010530 41 360 0.0 0.0 0.00 0.01 0.00 7 1008.2
20260508010444 41 360 0.0 0.0 0.00 0.01 0.00 7 1008.2
20260508010314 42 360 0.0 0.0 0.00 0.01 0.00 7 1008.2
20260508010236 42 360 0.0 0.0 0.00 0.01 0.00 8 1008.2
20260508010100 42 360 0.0 0.0 0.00 0.01 0.00 8 1008.2
20260508010022 42 360 0.0 0.0 0.00 0.01 0.00 8 1008.2
20260508005833 42 360 0.0 0.0 0.00 0.05 0.00 9 1008.2
20260508005726 42 360 0.0 0.0 0.00 0.05 0.00 9 1008.1
20260508005654 42 360 0.0 0.0 0.00 0.05 0.00 10 1008.1
20260508005558 42 360 0.0 0.0 0.00 0.05 0.00 9 1008.1
20260508005458 42 360 0.0 0.0 0.00 0.05 0.00 8 1008.1
20260508005400 42 360 0.0 0.0 0.00 0.05 0.00 8 1008.1
20260508005305 43 360 0.0 0.0 0.00 0.05 0.00 10 1008.1
20260508005202 43 360 0.0 0.0 0.00 0.05 0.00 11 1008.1
20260508005124 43 360 0.0 0.0 0.00 0.05 0.00 11 1008.1
20260508004926 43 360 0.0 0.0 0.00 0.05 0.00 14 1008.1
20260508004850 43 360 0.0 0.0 0.00 0.05 0.00 14 1008.1
20260508004732 43 360 0.0 0.0 0.00 0.05 0.00 14 1008.1
20260508004654 43 360 0.0 0.0 0.00 0.05 0.00 14 1008.1
20260508004621 43 360 0.0 0.0 0.00 0.05 0.00 14 1008.0
20260508004424 43 360 0.0 0.0 0.00 0.05 0.00 16 1008.0
20260508004345 43 360 0.0 0.0 0.00 0.05 0.00 16 1008.0
20260508004244 43 360 0.0 0.0 0.00 0.05 0.00 21 1008.0
20260508004141 43 360 0.0 0.0 0.00 0.05 0.00 22 1008.0
20260508004010 43 360 0.0 0.0 0.00 0.05 0.00 21 1007.9
20260508003922 44 360 0.0 0.0 0.00 0.05 0.00 21 1008.0
20260508003730 44 360 0.0 0.0 0.00 0.05 0.00 22 1007.9
20260508003642 44 360 0.0 0.0 0.00 0.05 0.00 23 1007.9
20260508003510 44 360 0.0 0.0 0.00 0.05 0.00 24 1007.9
20260508003428 44 360 0.0 0.0 0.00 0.05 0.00 25 1007.9
20260508003235 44 360 0.0 1.0 0.00 0.05 0.00 26 1007.8
20260508003159 44 360 0.0 1.0 0.00 0.05 0.00 26 1007.8
20260508003045 44 360 0.0 1.0 0.00 0.05 0.00 26 1007.8
20260508002946 44 360 0.0 1.0 0.00 0.05 0.00 26 1007.8
20260508002818 44 360 0.0 1.0 0.00 0.05 0.00 26 1007.8
20260508002733 44 360 0.0 1.0 0.00 0.05 0.00 26 1007.8
20260508002603 45 360 0.0 1.0 0.00 0.05 0.00 26 1007.8
20260508002505 45 360 0.0 1.0 0.00 0.05 0.00 26 1007.8
20260508002421 45 360 0.0 1.0 0.00 0.05 0.00 25 1007.8
20260508002250 45 360 1.0 1.0 0.00 0.05 0.00 24 1007.8
20260508002151 45 360 0.0 1.0 0.00 0.05 0.00 22 1007.8
20260508002035 45 360 0.0 0.0 0.00 0.05 0.00 20 1007.8
20260508001956 45 360 0.0 0.0 0.00 0.05 0.00 19 1007.8
20260508001836 45 360 0.0 0.0 0.00 0.05 0.00 21 1007.8
20260508001755 45 360 0.0 0.0 0.00 0.05 0.00 22 1007.8
20260508001635 46 360 0.0 0.0 0.00 0.05 0.00 23 1007.8
20260508001556 46 360 0.0 0.0 0.00 0.05 0.00 23 1007.8
20260508001438 46 360 0.0 0.0 0.00 0.05 0.00 25 1007.8
20260508001340 46 360 0.0 0.0 0.00 0.05 0.00 25 1007.8
20260508001159 46 360 0.0 0.0 0.00 0.05 0.00 24 1007.9
20260508001101 46 360 0.0 0.0 0.00 0.05 0.00 24 1007.8
20260508000927 46 360 0.0 0.0 0.00 0.05 0.00 24 1007.8
20260508000848 46 360 0.0 0.0 0.00 0.05 0.00 22 1007.8
20260508000729 46 360 0.0 0.0 0.00 0.05 0.00 20 1007.8
20260508000650 47 360 0.0 0.0 0.00 0.05 0.00 19 1007.8
20260508000610 47 360 0.0 0.0 0.00 0.05 0.00 19 1007.9
20260508000511 47 360 0.0 0.0 0.00 0.05 0.00 18 1007.8
20260508000430 47 360 0.0 0.0 0.00 0.05 0.00 18 1007.8
20260508000230 47 360 0.0 0.0 0.00 0.05 0.00 25 1007.8
20260508000133 47 360 0.0 0.0 0.00 0.05 0.00 28 1007.8
20260508000038 47 360 0.0 0.0 0.00 0.05 0.00 29 1007.8
20260507235942 47 360 0.0 0.0 0.00 0.05 0.00 30 1007.8
20260507235904 47 360 0.0 0.0 0.00 0.06 0.00 32 1007.8
20260507235807 47 360 0.0 0.0 0.00 0.06 0.00 33 1007.8
20260507235729 47 360 0.0 0.0 0.00 0.06 0.00 33 1007.9
20260507235600 47 360 0.0 0.0 0.00 0.06 0.00 32 1007.9
20260507235454 47 360 0.0 0.0 0.00 0.06 0.00 33 1007.9
20260507235243 47 360 0.0 0.0 0.00 0.06 0.00 38 1007.8
20260507235137 47 360 0.0 0.0 0.00 0.06 0.00 38 1007.9
20260507235032 47 360 0.0 0.0 0.00 0.06 0.00 39 1007.8
20260507234959 48 360 0.0 0.0 0.00 0.06 0.00 39 1007.8
20260507234828 48 360 0.0 1.0 0.00 0.06 0.00 39 1007.8
20260507234724 48 360 0.0 1.0 0.00 0.06 0.00 40 1007.8
20260507234535 48 360 0.0 1.0 0.00 0.06 0.00 42 1007.8
20260507234446 48 360 0.0 1.0 0.00 0.06 0.00 44 1007.8
20260507234234 48 360 0.0 1.0 0.00 0.06 0.00 46 1007.8
20260507234148 48 360 0.0 1.0 0.00 0.06 0.00 47 1007.8
20260507234020 48 335 0.0 0.0 0.00 0.06 0.00 48 1007.8
20260507233940 48 336 0.0 0.0 0.00 0.06 0.00 48 1007.8
20260507233758 49 332 0.0 0.0 0.00 0.06 0.00 48 1007.7
20260507233636 49 332 0.0 0.0 0.00 0.06 0.00 49 1007.7
20260507233559 49 332 0.0 0.0 0.00 0.06 0.00 49 1007.7
20260507233425 49 332 0.0 0.0 0.00 0.06 0.00 48 1007.7
20260507233342 49 332 0.0 0.0 0.00 0.06 0.00 49 1007.8
20260507233210 49 332 0.0 1.0 0.00 0.06 0.00 51 1007.8
20260507233131 49 332 0.0 1.0 0.00 0.06 0.00 52 1007.7
20260507232935 49 332 0.0 1.0 0.00 0.06 0.00 53 1007.7
20260507232859 49 332 0.0 1.0 0.00 0.06 0.00 53 1007.7
20260507232802 49 332 0.0 1.0 0.00 0.06 0.00 53 1007.7
20260507232649 49 332 0.0 1.0 0.00 0.06 0.00 53 1007.7
20260507232524 49 332 0.0 1.0 0.00 0.06 0.00 53 1007.7
20260507232439 49 332 1.0 1.0 0.00 0.06 0.00 52 1007.7
20260507232308 49 332 0.0 1.0 0.00 0.06 0.00 52 1007.7
20260507232230 50 332 0.0 2.0 0.00 0.06 0.00 52 1007.7
20260507232032 50 332 0.0 2.0 0.00 0.06 0.00 49 1007.7
20260507231955 50 332 0.0 2.0 0.00 0.06 0.00 49 1007.7
20260507231838 50 332 0.0 2.0 0.00 0.06 0.00 52 1007.7
20260507231746 50 332 0.0 2.0 0.00 0.06 0.00 52 1007.7
20260507231641 50 332 0.0 2.0 0.00 0.06 0.00 48 1007.7
20260507231604 50 332 0.0 2.0 0.00 0.06 0.00 48 1007.7
20260507231508 50 327 0.0 2.0 0.00 0.06 0.00 49 1007.7
20260507231430 50 327 0.0 2.0 0.00 0.06 0.00 50 1007.7
20260507231234 50 327 0.0 1.0 0.00 0.06 0.00 49 1007.8
20260507231134 50 327 0.0 1.0 0.00 0.06 0.00 51 1007.8
20260507231016 50 331 0.0 1.0 0.00 0.06 0.00 51 1007.8
20260507230936 50 331 0.0 1.0 0.00 0.06 0.00 51 1007.8
20260507230816 50 24 0.0 1.0 0.00 0.06 0.00 49 1007.8
20260507230736 50 24 0.0 1.0 0.00 0.06 0.00 48 1007.8
20260507230605 50 26 0.0 1.0 0.00 0.06 0.00 49 1007.8
20260507230527 50 26 0.0 1.0 0.00 0.06 0.00 49 1007.8
20260507230332 50 24 0.0 1.0 0.00 0.06 0.00 47 1007.8
20260507230234 50 29 0.0 2.0 0.00 0.06 0.00 47 1007.7
20260507230136 50 31 0.0 2.0 0.00 0.06 0.00 45 1007.7
20260507230058 50 31 0.0 2.0 0.00 0.06 0.00 47 1007.7
20260507225927 50 274 0.0 2.0 0.00 0.06 0.00 47 1007.7
20260507225822 50 274 0.0 2.0 0.00 0.06 0.00 47 1007.7
20260507225629 50 274 0.0 3.0 0.00 0.06 0.00 46 1007.7
20260507225552 50 274 0.0 3.0 0.00 0.06 0.00 46 1007.7
20260507225439 50 274 0.0 3.0 0.00 0.06 0.00 47 1007.7
20260507225402 50 274 0.0 3.0 0.00 0.06 0.00 47 1007.7
20260507225324 50 274 1.0 3.0 0.00 0.06 0.00 47 1007.7
20260507225128 50 295 0.0 9.0 0.00 0.06 0.00 46 1007.7
20260507225032 50 295 0.0 9.0 0.00 0.06 0.00 45 1007.7
20260507224934 50 295 1.0 9.0 0.00 0.06 0.00 45 1007.7
20260507224857 50 295 2.0 9.0 0.00 0.06 0.00 45 1007.7
20260507224820 50 295 2.0 9.0 0.00 0.06 0.00 45 1007.7
20260507224641 50 269 2.0 9.0 0.00 0.06 0.00 47 1007.7
20260507224544 50 300 3.0 9.0 0.00 0.06 0.00 45 1007.7
20260507224434 50 298 5.0 9.0 0.00 0.06 0.00 45 1007.6
20260507224327 50 331 5.0 9.0 0.00 0.06 0.00 46 1007.5
20260507224250 50 296 5.0 10.0 0.00 0.06 0.00 45 1007.5
20260507224211 50 334 5.0 10.0 0.00 0.06 0.00 45 1007.5
20260507224106 51 336 6.0 10.0 0.00 0.06 0.00 45 1007.5
20260507223914 51 5 6.0 10.0 0.00 0.06 0.00 44 1007.6
20260507223837 51 337 7.0 10.0 0.00 0.06 0.00 44 1007.5
20260507223708 51 360 5.0 10.0 0.00 0.06 0.00 44 1007.6
20260507223622 51 338 4.0 10.0 0.00 0.06 0.00 44 1007.5
20260507223432 51 329 4.0 10.0 0.00 0.06 0.00 44 1007.5
20260507223330 51 324 4.0 10.0 0.00 0.06 0.00 43 1007.5
20260507223254 51 343 5.0 10.0 0.00 0.06 0.00 43 1007.5
20260507223157 51 333 5.0 10.0 0.00 0.06 0.00 43 1007.5
20260507223118 52 317 5.0 10.0 0.00 0.06 0.00 43 1007.5
20260507222950 52 315 6.0 10.0 0.00 0.06 0.00 42 1007.5
20260507222825 52 311 6.0 10.0 0.00 0.06 0.00 43 1007.4
20260507222720 52 315 6.0 10.0 0.00 0.06 0.00 43 1007.5
20260507222654 52 355 7.0 10.0 0.00 0.06 0.00 42 1007.5
20260507222617 52 321 7.0 10.0 0.00 0.06 0.00 42 1007.5
20260507222426 52 342 5.0 10.0 0.00 0.06 0.00 43 1007.5
20260507222329 52 10 5.0 11.0 0.00 0.06 0.00 41 1007.4
20260507222229 52 312 6.0 11.0 0.00 0.06 0.00 41 1007.5
20260507222151 53 299 6.0 11.0 0.00 0.06 0.00 41 1007.4
20260507221936 53 5 6.0 11.0 0.00 0.06 0.00 42 1007.4
20260507221838 53 350 4.0 11.0 0.00 0.06 0.00 41 1007.4
20260507221739 53 341 4.0 11.0 0.00 0.06 0.00 42 1007.4
20260507221643 53 341 5.0 11.0 0.00 0.06 0.00 42 1007.4
20260507221558 53 319 4.0 11.0 0.00 0.06 0.00 42 1007.4
20260507221410 53 343 4.0 11.0 0.00 0.06 0.00 42 1007.4
20260507221333 52 319 4.0 12.0 0.00 0.06 0.00 42 1007.5
20260507221135 52 355 4.0 12.0 0.00 0.06 0.00 41 1007.5
20260507221058 52 28 5.0 12.0 0.00 0.06 0.00 41 1007.5
20260507220924 52 32 8.0 14.0 0.00 0.06 0.00 40 1007.5
20260507220827 52 338 7.0 14.0 0.00 0.06 0.00 41 1007.4
20260507220751 52 321 7.0 14.0 0.00 0.06 0.00 40 1007.4
20260507220712 52 302 6.0 14.0 0.00 0.06 0.00 40 1007.4
20260507220615 52 287 8.0 14.0 0.00 0.06 0.00 41 1007.4
20260507220538 52 311 9.0 14.0 0.00 0.06 0.00 40 1007.5
20260507220330 52 333 8.0 14.0 0.00 0.06 0.00 41 1007.4
20260507220224 52 309 10.0 14.0 0.00 0.06 0.00 39 1007.4
20260507220146 52 310 9.0 14.0 0.00 0.06 0.00 39 1007.4
20260507220050 52 319 8.0 14.0 0.00 0.06 0.00 41 1007.5
20260507220013 52 343 6.0 12.0 0.00 0.06 0.00 40 1007.4
20260507215913 53 319 6.0 12.0 0.00 0.08 0.00 40 1007.4
20260507215818 53 13 5.0 12.0 0.00 0.08 0.00 41 1007.4
20260507215740 53 345 6.0 12.0 0.00 0.08 0.00 41 1007.4
20260507215611 53 337 4.0 12.0 0.00 0.08 0.00 41 1007.4
20260507215525 53 12 3.0 10.0 0.00 0.08 0.00 42 1007.4